FW4130 Weather Reports


time (UTC)temp
C
wind
direction
speed
KPH
gust
KPH
rain 1hr
cm
rain 24hr
cm
rain mn
cm
humidity
%
barometer
mb
20260507181904 5 142 6.4 9.7 0.00 1.37 0.99 86 1013.1
20260507181804 5 139 6.4 9.7 0.00 1.37 0.99 82 1013.1
20260507181705 5 133 6.4 9.7 0.00 1.37 0.99 84 1013.1
20260507181604 5 136 6.4 9.7 0.00 1.37 0.99 84 1013.0
20260507181505 5 138 6.4 9.7 0.00 1.37 0.99 84 1013.4
20260507181404 5 140 6.4 9.7 0.00 1.45 0.99 85 1013.1
20260507181204 5 151 4.8 6.4 0.00 1.45 0.99 87 1013.2
20260507181104 5 151 6.4 6.4 0.00 1.45 0.99 87 1013.3
20260507181005 5 150 6.4 6.4 0.00 1.45 0.99 85 1013.3
20260507180904 5 149 6.4 6.4 0.00 1.47 0.99 85 1013.0
20260507180805 5 145 6.4 6.4 0.00 1.47 0.99 85 1013.0
20260507180704 5 144 6.4 6.4 0.00 1.47 0.99 84 1013.2
20260507180604 5 144 6.4 6.4 0.00 1.47 0.99 84 1013.2
20260507180505 5 144 4.8 6.4 0.00 1.47 0.99 83 1012.9
20260507180404 5 141 4.8 6.4 0.00 1.60 0.99 83 1012.9
20260507180304 5 139 4.8 6.4 0.00 1.60 0.99 83 1013.1
20260507180204 5 135 4.8 6.4 0.00 1.60 0.99 83 1013.0
20260507180005 5 128 4.8 6.4 0.00 1.60 0.99 83 1013.1
20260507175905 5 128 4.8 6.4 0.00 1.60 0.99 83 1012.9
20260507175804 5 131 4.8 6.4 0.00 1.60 0.99 83 1012.9
20260507175704 6 130 4.8 6.4 0.00 1.60 0.99 84 1013.1
20260507175604 6 130 4.8 6.4 0.00 1.60 0.99 83 1013.0
20260507175505 6 131 4.8 6.4 0.00 1.60 0.99 83 1013.1
20260507175404 6 131 4.8 6.4 0.00 1.63 0.99 84 1012.8
20260507175306 6 130 4.8 6.4 0.00 1.63 0.99 82 1012.9
20260507175205 6 130 4.8 6.4 0.00 1.63 0.99 82 1012.7
20260507175104 6 131 4.8 6.4 0.00 1.63 0.99 82 1012.8
20260507174904 5 132 4.8 6.4 0.00 1.65 0.99 84 1012.9
20260507174804 6 124 4.8 6.4 0.00 1.65 0.99 82 1012.8
20260507174704 6 129 4.8 6.4 0.00 1.65 0.99 83 1012.6
20260507174605 6 129 3.2 6.4 0.00 1.65 0.99 83 1012.7
20260507174504 6 129 3.2 6.4 0.00 1.65 0.99 84 1012.8
20260507174405 6 126 3.2 6.4 0.00 1.70 0.99 86 1013.0
20260507174304 6 123 3.2 6.4 0.00 1.70 0.99 84 1012.9
20260507174204 6 110 3.2 6.4 0.00 1.70 0.99 84 1012.8
20260507174104 6 107 3.2 6.4 0.00 1.70 0.99 84 1012.7
20260507174005 6 105 3.2 6.4 0.00 1.70 0.99 84 1012.7
20260507173904 6 105 3.2 6.4 0.00 1.80 0.99 84 1012.8
20260507173804 6 126 3.2 9.7 0.00 1.80 0.99 84 1012.7
20260507173705 6 107 3.2 9.7 0.00 1.80 0.99 85 1012.7
20260507173604 6 98 4.8 9.7 0.00 1.80 0.99 84 1012.7
20260507173505 6 99 4.8 9.7 0.00 1.80 0.99 84 1012.7
20260507173404 6 91 6.4 11.3 0.00 1.88 0.99 83 1012.8
20260507173305 6 86 6.4 11.3 0.00 1.88 0.99 83 1012.8
20260507173204 6 86 6.4 11.3 0.00 1.88 0.99 83 1012.7
20260507173104 6 83 8.0 11.3 0.00 1.88 0.99 83 1012.7
20260507173005 6 81 8.0 11.3 0.00 1.88 0.99 83 1012.7
20260507172804 6 68 8.0 11.3 0.00 1.98 0.99 80 1012.7
20260507172704 7 66 6.4 11.3 0.00 1.98 0.99 81 1012.7
20260507172604 7 69 6.4 11.3 0.00 1.98 0.99 81 1012.8
20260507172404 7 65 4.8 9.7 0.00 2.03 0.99 80 1012.5
20260507172307 7 67 4.8 6.4 0.00 2.03 0.99 79 1012.7
20260507172104 7 79 4.8 6.4 0.00 2.03 0.99 78 1012.7
20260507172005 7 90 4.8 6.4 0.00 2.03 0.99 79 1012.7
20260507171704 7 117 4.8 9.7 0.00 2.13 0.99 79 1012.8
20260507171604 7 118 6.4 9.7 0.00 2.13 0.99 79 1012.8
20260507171504 7 120 6.4 9.7 0.00 2.13 0.99 79 1012.6
20260507171305 6 125 6.4 11.3 0.00 2.16 0.99 79 1012.8
20260507171204 6 124 6.4 11.3 0.00 2.16 0.99 80 1012.6
20260507171104 6 123 6.4 11.3 0.00 2.16 0.99 79 1012.6
20260507170804 6 123 6.4 11.3 0.00 2.21 0.99 80 1012.7
20260507170704 6 121 6.4 11.3 0.00 2.21 0.99 79 1012.7
20260507170605 6 118 6.4 11.3 0.00 2.21 0.99 79 1012.6
20260507170504 6 119 6.4 11.3 0.00 2.26 0.99 79 1012.9
20260507170404 6 117 6.4 11.3 0.00 2.26 0.99 78 1012.6
20260507170304 6 117 6.4 11.3 0.00 2.26 0.99 79 1012.8
20260507170204 6 117 6.4 11.3 0.00 2.26 0.99 79 1012.6
20260507170005 6 110 8.0 11.3 0.00 2.26 0.99 79 1012.5
20260507165904 6 113 8.0 11.3 0.00 2.31 0.99 79 1012.6
20260507165704 6 114 9.7 11.3 0.00 2.31 0.99 79 1012.5
20260507165505 6 110 8.0 11.3 0.00 2.31 0.99 79 1012.6
20260507165204 6 101 8.0 11.3 0.00 2.34 0.99 79 1012.8
20260507165104 6 104 8.0 11.3 0.00 2.34 0.99 78 1012.6
20260507165005 6 107 8.0 11.3 0.00 2.34 0.99 78 1012.5
20260507164804 6 100 6.4 11.3 0.00 2.46 0.99 79 1012.7
20260507164705 6 102 6.4 9.7 0.00 2.46 0.99 80 1012.8
20260507164604 7 104 6.4 9.7 0.00 2.46 0.99 80 1012.7
20260507164505 7 106 6.4 9.7 0.00 2.46 0.99 80 1012.9
20260507164404 7 115 6.4 9.7 0.00 2.49 0.99 80 1012.7
20260507164304 6 120 6.4 9.7 0.00 2.49 0.99 80 1012.8
20260507164204 6 118 6.4 9.7 0.00 2.49 0.99 80 1012.8
20260507164105 7 113 6.4 9.7 0.00 2.49 0.99 80 1012.6
20260507164004 7 108 6.4 9.7 0.00 2.49 0.99 79 1012.7
20260507163904 7 102 6.4 9.7 0.00 2.62 0.99 79 1012.9
20260507163704 7 103 6.4 9.7 0.00 2.62 0.99 81 1012.4
20260507163604 7 104 6.4 9.7 0.00 2.62 0.99 80 1012.7
20260507163505 7 106 6.4 11.3 0.00 2.62 0.99 80 1012.6
20260507163404 7 103 6.4 11.3 0.00 2.64 0.99 80 1012.8
20260507163305 7 101 6.4 12.9 0.00 2.64 0.99 79 1012.5
20260507163204 7 108 6.4 12.9 0.00 2.64 0.99 80 1012.7
20260507163104 7 113 6.4 12.9 0.00 2.64 0.99 80 1012.8
20260507162804 7 106 6.4 12.9 0.00 2.69 0.99 78 1012.6
20260507162704 7 101 6.4 12.9 0.00 2.69 0.99 78 1012.8
20260507162604 7 99 6.4 12.9 0.00 2.69 0.99 78 1012.7
20260507162505 7 96 6.4 14.5 0.00 2.69 0.99 77 1012.5
20260507162404 7 90 8.0 14.5 0.00 2.72 0.99 78 1012.7
20260507162306 7 86 6.4 14.5 0.00 2.72 0.99 77 1012.7
20260507162104 7 72 8.0 14.5 0.00 2.72 0.99 79 1012.6
20260507162005 7 75 8.0 14.5 0.00 2.72 0.99 80 1012.8
20260507161904 7 75 8.0 14.5 0.00 2.77 0.99 80 1012.5
20260507161804 7 77 8.0 14.5 0.00 2.77 0.99 81 1012.7
20260507161704 7 78 9.7 14.5 0.00 2.77 0.99 81 1012.6
20260507161604 7 67 9.7 14.5 0.00 2.77 0.99 81 1012.6
20260507161505 7 60 9.7 14.5 0.00 2.77 0.99 81 1012.6
20260507161404 7 53 9.7 14.5 0.00 2.77 0.99 81 1012.6
20260507161305 7 41 9.7 14.5 0.00 2.77 0.99 81 1012.7
20260507161204 7 24 9.7 14.5 0.00 2.77 0.99 81 1012.5
20260507161104 7 20 11.3 14.5 0.00 2.77 0.99 81 1012.5
20260507161005 7 13 9.7 14.5 0.00 2.77 0.99 82 1012.6
20260507160904 7 359 9.7 14.5 0.00 2.77 0.99 83 1012.5
20260507160804 7 1 9.7 14.5 0.00 2.77 0.99 84 1012.4
20260507160704 7 356 9.7 14.5 0.00 2.77 0.99 83 1012.4
20260507160605 7 5 9.7 14.5 0.00 2.77 0.99 82 1012.5
20260507160506 7 1 9.7 12.9 0.00 2.77 0.99 83 1012.6
20260507160404 7 2 9.7 12.9 0.00 2.77 0.99 82 1012.5
20260507160305 7 1 9.7 12.9 0.00 2.77 0.99 82 1012.6
20260507160204 7 3 9.7 12.9 0.00 2.77 0.99 82 1012.4
20260507160104 8 3 9.7 14.5 0.00 2.77 0.99 81 1012.5
20260507160005 8 10 9.7 14.5 0.00 2.77 0.99 81 1012.6
20260507155904 7 25 11.3 17.7 0.00 2.77 0.99 80 1012.6
20260507155804 7 29 11.3 17.7 0.00 2.77 0.99 83 1012.5
20260507155704 7 36 11.3 17.7 0.00 2.77 0.99 81 1012.4
20260507155604 7 34 11.3 17.7 0.00 2.77 0.99 83 1012.6
20260507155504 7 40 11.3 17.7 0.00 2.77 0.99 83 1012.4
20260507155405 7 42 11.3 17.7 0.00 2.77 0.99 82 1012.6
20260507155306 7 47 11.3 17.7 0.00 2.77 0.99 82 1012.3
20260507155104 7 49 11.3 17.7 0.00 2.77 0.99 81 1012.5
20260507155005 7 45 11.3 17.7 0.00 2.77 0.99 82 1012.5
20260507154904 8 41 9.7 17.7 0.00 2.77 0.99 81 1012.5
20260507154705 8 38 11.3 22.5 0.00 2.77 0.99 80 1012.6
20260507154604 8 40 12.9 25.7 0.00 2.77 0.99 80 1012.5
20260507154504 8 44 14.5 25.7 0.00 2.77 0.99 81 1012.6
20260507154304 8 47 14.5 25.7 0.00 2.77 0.99 79 1012.5
20260507154104 8 51 16.1 25.7 0.00 2.77 0.99 80 1012.3
20260507154005 8 55 16.1 25.7 0.00 2.77 0.99 80 1012.5
20260507153904 8 55 16.1 25.7 0.00 2.77 0.99 79 1012.4
20260507153804 8 56 16.1 25.7 0.00 2.77 0.99 79 1012.5
20260507153704 8 58 16.1 25.7 0.00 2.77 0.99 79 1012.6
20260507153604 8 61 14.5 25.7 0.00 2.77 0.99 78 1012.5
20260507153504 8 59 14.5 22.5 0.00 2.77 0.99 79 1012.5
20260507153404 8 59 14.5 22.5 0.00 2.77 0.99 79 1012.4
20260507153304 8 61 14.5 22.5 0.00 2.77 0.99 80 1012.3
20260507153005 7 45 12.9 22.5 0.00 2.77 0.99 80 1012.4
20260507152904 7 41 12.9 22.5 0.00 2.77 0.99 81 1012.4
20260507152804 7 42 12.9 22.5 0.00 2.77 0.99 80 1012.3
20260507152704 7 36 11.3 17.7 0.00 2.77 0.99 79 1012.3
20260507152604 8 27 11.3 17.7 0.00 2.77 0.99 79 1012.4
20260507152505 8 20 11.3 17.7 0.00 2.77 0.99 78 1012.5
20260507152404 8 17 11.3 17.7 0.00 2.77 0.99 78 1012.4
20260507152306 8 16 11.3 17.7 0.00 2.77 0.99 78 1012.4
20260507152005 8 19 11.3 17.7 0.00 2.77 0.99 77 1012.5
20260507151904 8 21 12.9 17.7 0.00 2.77 0.99 78 1012.1
20260507151804 8 14 14.5 17.7 0.00 2.77 0.99 77 1012.2
20260507151604 8 23 14.5 17.7 0.00 2.77 0.99 77 1012.5
20260507151404 8 22 12.9 17.7 0.00 2.79 0.99 79 1012.2
20260507151305 8 13 12.9 17.7 0.00 2.79 0.99 78 1012.4
20260507151204 8 7 12.9 17.7 0.00 2.79 0.99 76 1012.4
20260507151005 8 11 11.3 17.7 0.00 2.79 0.99 75 1012.4
20260507150904 8 8 11.3 17.7 0.00 2.79 0.99 79 1012.3
20260507150804 8 22 9.7 17.7 0.00 2.79 0.99 76 1012.4
20260507150704 8 27 9.7 17.7 0.00 2.79 0.99 78 1012.4
20260507150604 8 26 9.7 17.7 0.00 2.79 0.99 76 1012.4
20260507150504 8 27 9.7 14.5 0.00 2.79 0.99 78 1012.3
20260507150405 8 32 9.7 17.7 0.00 2.79 0.99 78 1012.3
20260507150304 8 32 9.7 17.7 0.00 2.79 0.99 77 1012.3
20260507150204 8 40 9.7 17.7 0.00 2.79 0.99 78 1012.3
20260507150104 8 40 9.7 17.7 0.00 2.79 0.99 75 1012.2
20260507150005 8 42 9.7 17.7 0.00 2.79 0.99 77 1012.4
20260507145904 8 41 9.7 17.7 0.00 2.79 0.99 76 1012.3
20260507145804 8 38 9.7 17.7 0.00 2.79 0.99 72 1012.4
20260507145504 10 33 9.7 17.7 0.00 2.79 0.99 72 1012.2
20260507145404 10 32 9.7 17.7 0.00 2.79 0.99 76 1012.4
20260507145306 9 37 8.0 14.5 0.00 2.79 0.99 74 1012.2
20260507145204 9 30 9.7 14.5 0.00 2.79 0.99 74 1012.3
20260507145104 9 29 9.7 17.7 0.00 2.79 0.99 73 1012.4
20260507144804 9 23 9.7 17.7 0.00 2.79 0.99 76 1012.3
20260507144704 10 27 9.7 17.7 0.00 2.79 0.99 75 1012.2
20260507144604 10 22 9.7 17.7 0.00 2.79 0.99 75 1012.4
20260507144504 10 25 11.3 17.7 0.00 2.79 0.99 72 1012.5
20260507144404 10 28 9.7 17.7 0.00 2.79 0.99 77 1012.4
20260507144304 10 28 9.7 17.7 0.00 2.79 0.99 77 1012.5
20260507144204 10 32 9.7 17.7 0.00 2.79 0.99 76 1012.3
20260507144104 10 30 9.7 14.5 0.00 2.79 0.99 71 1012.4
20260507144005 9 21 9.7 14.5 0.00 2.79 0.99 72 1012.6
20260507143804 9 10 11.3 22.5 0.00 2.79 0.99 71 1012.4
20260507143704 9 359 11.3 22.5 0.00 2.79 0.99 74 1012.4
20260507143604 9 352 11.3 22.5 0.00 2.79 0.99 71 1012.7
20260507143505 10 349 11.3 22.5 0.00 2.79 0.99 69 1012.3
20260507143404 10 345 9.7 22.5 0.00 2.79 0.99 73 1012.4
20260507143304 10 348 11.3 22.5 0.00 2.79 0.99 75 1012.3
20260507143104 10 1 11.3 22.5 0.00 2.79 0.99 75 1012.5
20260507143005 10 12 11.3 22.5 0.00 2.79 0.99 75 1012.4
20260507142904 10 15 11.3 22.5 0.00 2.79 0.99 76 1012.2
20260507142804 10 17 11.3 22.5 0.00 2.79 0.99 74 1012.2
20260507142704 10 30 9.7 14.5 0.00 2.79 0.99 74 1012.2
20260507142604 10 38 9.7 14.5 0.00 2.79 0.99 74 1012.4
20260507142404 10 41 9.7 14.5 0.00 2.79 0.99 77 1012.5
20260507142306 9 31 11.3 17.7 0.00 2.79 0.99 76 1012.5
20260507142104 9 28 11.3 17.7 0.00 2.79 0.99 69 1012.2
20260507141904 10 33 9.7 17.7 0.00 2.79 0.99 68 1012.5
20260507141804 10 36 9.7 17.7 0.00 2.79 0.99 74 1012.4
20260507141704 10 35 9.7 17.7 0.00 2.79 0.99 71 1012.4
20260507141604 10 34 9.7 17.7 0.00 2.79 0.99 77 1012.4
20260507141404 10 32 9.7 17.7 0.00 2.79 0.99 78 1012.3
20260507141304 10 40 9.7 17.7 0.00 2.79 0.99 79 1012.2
20260507141204 10 40 9.7 17.7 0.00 2.79 0.99 73 1012.4
20260507141104 10 32 8.0 17.7 0.00 2.79 0.99 75 1012.5
20260507140904 10 24 9.7 12.9 0.00 2.79 0.99 79 1012.5
20260507140804 10 24 9.7 17.7 0.00 2.79 0.99 79 1012.4
20260507140704 10 25 11.3 17.7 0.00 2.79 0.99 79 1012.4
20260507140604 10 26 11.3 17.7 0.00 2.79 0.99 78 1012.4
20260507140404 10 33 12.9 17.7 0.00 2.79 0.99 70 1012.4
20260507140304 10 33 12.9 17.7 0.00 2.79 0.99 74 1012.6
20260507140204 10 27 12.9 17.7 0.00 2.79 0.99 71 1012.5
20260507140104 10 27 12.9 17.7 0.00 2.79 0.99 75 1012.4
20260507140005 10 22 12.9 17.7 0.00 2.79 0.99 77 1012.2
20260507135904 10 22 12.9 17.7 0.00 2.79 0.99 76 1012.4
20260507135804 10 16 11.3 17.7 0.00 2.79 0.99 73 1012.5
20260507135604 10 14 11.3 14.5 0.00 2.79 0.99 75 1012.1
20260507135505 10 6 9.7 14.5 0.00 2.79 0.99 69 1012.3
20260507135404 10 356 9.7 17.7 0.00 2.79 0.99 71 1012.2
20260507135306 10 352 11.3 17.7 0.00 2.79 0.99 76 1012.4
20260507135205 10 353 9.7 17.7 0.00 2.79 0.99 78 1012.5
20260507135104 10 354 9.7 17.7 0.00 2.79 0.99 79 1012.4
20260507135005 10 358 9.7 17.7 0.00 2.79 0.99 76 1012.3
20260507134804 10 356 9.7 17.7 0.00 2.82 0.99 74 1012.3
20260507134704 10 347 9.7 17.7 0.00 2.82 0.99 73 1012.5
20260507134505 10 347 9.7 17.7 0.00 2.82 0.99 77 1012.6
20260507134304 10 345 9.7 14.5 0.00 2.82 0.99 73 1012.4
20260507134204 10 348 9.7 14.5 0.00 2.82 0.99 73 1012.5
20260507134104 10 352 9.7 14.5 0.00 2.82 0.99 79 1012.6
20260507134004 10 1 11.3 17.7 0.00 2.82 0.99 74 1012.4
20260507133904 10 4 9.7 17.7 0.00 2.82 0.99 79 1012.5
20260507133804 10 14 11.3 17.7 0.00 2.82 0.99 80 1012.6
20260507133704 10 20 11.3 17.7 0.00 2.82 0.99 78 1012.4
20260507133505 9 356 12.9 17.7 0.00 2.82 0.99 78 1012.6
20260507133404 9 354 12.9 17.7 0.00 2.82 0.99 76 1012.6
20260507133304 9 343 12.9 17.7 0.00 2.82 0.99 76 1012.7
20260507133204 10 344 12.9 17.7 0.00 2.82 0.99 78 1012.5
20260507133104 10 340 12.9 17.7 0.00 2.82 0.99 71 1012.5
20260507133005 10 331 12.9 17.7 0.00 2.82 0.99 75 1012.5
20260507132904 9 331 12.9 17.7 0.00 2.84 0.99 78 1012.6
20260507132804 9 325 11.3 17.7 0.00 2.84 0.99 78 1012.7
20260507132704 10 324 11.3 17.7 0.00 2.84 0.99 81 1012.6
20260507132604 10 337 11.3 17.7 0.00 2.84 0.99 81 1012.6
20260507132505 10 355 9.7 17.7 0.00 2.84 0.99 76 1012.6
20260507132404 10 358 9.7 17.7 0.00 2.84 0.99 80 1012.4
20260507132307 10 9 9.7 17.7 0.00 2.84 0.99 76 1012.5
20260507132204 10 10 9.7 17.7 0.00 2.84 0.99 83 1012.6
20260507132104 11 10 9.7 17.7 0.00 2.84 0.99 78 1012.4
20260507132004 11 12 9.7 17.7 0.00 2.84 0.99 78 1012.4
20260507131905 11 11 9.7 17.7 0.00 2.84 0.99 79 1012.4
20260507131804 10 9 9.7 17.7 0.00 2.84 0.99 80 1012.6
20260507131704 10 6 9.7 17.7 0.00 2.84 0.99 81 1012.5
20260507131604 10 352 9.7 17.7 0.00 2.84 0.99 77 1012.4
20260507131505 10 346 9.7 17.7 0.00 2.84 0.99 80 1012.5
20260507131404 9 348 9.7 17.7 0.00 2.84 0.99 83 1012.5
20260507131203 10 349 8.0 12.9 0.00 2.84 0.99 83 1012.4
20260507131104 10 354 8.0 12.9 0.00 2.84 0.99 80 1012.5
20260507130804 10 340 9.7 17.7 0.00 2.84 0.99 79 1012.6
20260507130704 10 349 9.7 17.7 0.00 2.84 0.99 78 1012.4
20260507130604 10 7 9.7 17.7 0.00 2.84 0.99 77 1012.7
20260507130505 10 12 9.7 17.7 0.00 2.84 0.99 76 1012.6
20260507130404 9 11 9.7 17.7 0.00 2.87 0.99 80 1012.6
20260507130304 9 6 9.7 17.7 0.00 2.87 0.99 85 1012.6
20260507130204 9 1 11.3 17.7 0.00 2.87 0.99 80 1012.5
20260507130105 10 354 11.3 17.7 0.00 2.87 0.99 77 1012.6
20260507130005 10 357 11.3 14.5 0.00 2.87 0.99 83 1012.4
20260507125904 10 356 9.7 12.9 0.00 2.87 0.99 79 1012.7
20260507125804 10 351 9.7 12.9 0.00 2.87 0.99 80 1012.6
20260507125704 9 346 9.7 12.9 0.00 2.87 0.99 82 1012.5
20260507125604 9 340 8.0 12.9 0.00 2.87 0.99 80 1012.4
20260507125505 9 337 8.0 12.9 0.00 2.87 0.99 82 1012.4
20260507125404 9 331 8.0 12.9 0.00 2.87 0.99 80 1012.5
20260507125204 9 325 8.0 11.3 0.00 2.87 0.99 79 1012.4
20260507125104 10 321 8.0 11.3 0.00 2.87 0.99 80 1012.6
20260507125005 10 322 8.0 12.9 0.00 2.87 0.99 80 1012.6
20260507124904 10 336 8.0 12.9 0.00 2.87 0.99 81 1012.5
20260507124704 10 339 9.7 12.9 0.00 2.87 0.99 79 1012.6
20260507124604 10 345 9.7 14.5 0.00 2.87 0.99 80 1012.5
20260507124505 9 345 9.7 14.5 0.00 2.87 0.99 80 1012.7
20260507124404 9 343 11.3 14.5 0.00 2.87 0.99 81 1012.5
20260507124304 9 339 11.3 14.5 0.00 2.87 0.99 80 1012.5
20260507124204 9 339 11.3 14.5 0.00 2.87 0.99 84 1012.4
20260507124104 9 342 11.3 14.5 0.00 2.87 0.99 84 1012.5
20260507123904 9 345 9.7 14.5 0.00 2.87 0.99 82 1012.6
20260507123804 9 344 9.7 14.5 0.00 2.87 0.99 82 1012.4
20260507123704 9 346 9.7 14.5 0.00 2.87 0.99 80 1012.4
20260507123604 9 345 8.0 14.5 0.00 2.87 0.99 78 1012.5
20260507123505 9 352 9.7 14.5 0.00 2.87 0.99 79 1012.6
20260507123404 9 5 9.7 14.5 0.00 2.87 0.99 80 1012.4
20260507123304 9 14 8.0 14.5 0.00 2.87 0.99 78 1012.5
20260507123204 9 18 8.0 14.5 0.00 2.87 0.99 83 1012.6
20260507123104 9 29 8.0 14.5 0.00 2.87 0.99 81 1012.6
20260507123005 9 20 8.0 14.5 0.00 2.87 0.99 80 1012.5
20260507122904 10 13 8.0 14.5 0.00 2.87 0.99 79 1012.6
20260507122804 10 18 8.0 14.5 0.00 2.87 0.99 79 1012.6
20260507122705 10 31 9.7 14.5 0.00 2.87 0.99 85 1012.5
20260507122604 9 26 9.7 14.5 0.00 2.87 0.99 83 1012.6
20260507122504 9 17 8.0 14.5 0.00 2.87 0.99 81 1012.7
20260507122404 9 5 8.0 14.5 0.00 2.87 0.99 79 1012.6
20260507122307 9 5 9.7 14.5 0.00 2.87 0.99 76 1012.5
20260507122204 9 5 9.7 14.5 0.00 2.87 0.99 73 1012.5
20260507122104 9 1 9.7 14.5 0.00 2.87 0.99 78 1012.4
20260507122005 9 3 9.7 14.5 0.00 2.87 0.99 83 1012.3
20260507121904 9 359 9.7 14.5 0.00 2.87 0.99 81 1012.5
20260507121804 10 353 9.7 14.5 0.00 2.87 0.99 78 1012.3
20260507121704 10 344 9.7 11.3 0.00 2.87 0.99 84 1012.5
20260507121604 10 352 9.7 11.3 0.00 2.87 0.99 84 1012.5
20260507121404 10 3 9.7 12.9 0.00 2.87 0.99 75 1012.5
20260507121304 10 4 9.7 12.9 0.00 2.87 0.99 82 1012.8
20260507121204 10 7 8.0 12.9 0.00 2.87 0.99 85 1012.6
20260507121104 10 5 8.0 12.9 0.00 2.87 0.99 83 1012.6
20260507121004 10 8 8.0 12.9 0.00 2.87 0.99 83 1012.7
20260507120804 10 17 6.4 12.9 0.00 2.87 0.99 83 1012.6
20260507120704 10 27 6.4 12.9 0.00 2.87 0.99 87 1012.6
20260507120604 10 30 8.0 12.9 0.00 2.87 0.99 84 1012.7
20260507120505 10 34 8.0 12.9 0.00 2.87 0.99 86 1012.5
20260507120404 10 44 8.0 12.9 0.00 2.87 0.99 86 1012.4
20260507120304 10 45 8.0 12.9 0.00 2.87 0.99 86 1012.7
20260507120204 10 46 8.0 12.9 0.00 2.87 0.99 86 1012.5
20260507120104 10 41 9.7 17.7 0.00 2.87 0.99 86 1012.5
20260507120005 10 37 9.7 17.7 0.00 2.87 0.99 86 1012.7
20260507115903 10 40 9.7 17.7 0.00 2.87 0.99 84 1012.5
20260507115804 9 42 9.7 17.7 0.00 2.87 0.99 87 1012.4
20260507115604 9 33 9.7 17.7 0.00 2.87 0.99 78 1012.6
20260507115505 9 27 9.7 17.7 0.00 2.87 0.99 78 1012.6
20260507115404 9 15 9.7 17.7 0.00 2.87 0.99 78 1012.8
20260507115204 8 16 9.7 17.7 0.00 2.87 0.99 90 1012.6
20260507115104 8 17 9.7 17.7 0.00 2.87 0.99 88 1012.4
20260507115004 8 22 8.0 12.9 0.00 2.87 0.99 89 1012.5
20260507114804 8 17 8.0 12.9 0.00 2.87 0.99 86 1012.4
20260507114704 9 13 8.0 12.9 0.00 2.87 0.99 76 1012.7
20260507114604 9 4 8.0 12.9 0.00 2.87 0.99 76 1012.4
20260507114505 9 6 8.0 12.9 0.00 2.87 0.99 81 1012.6
20260507114204 9 19 6.4 12.9 0.00 2.87 0.99 89 1012.6
20260507114004 10 29 8.0 12.9 0.00 2.87 0.99 92 1012.5
20260507113904 9 30 8.0 12.9 0.00 2.87 0.99 92 1012.6
20260507113804 9 28 8.0 12.9 0.00 2.87 0.99 88 1012.6
20260507113704 9 29 8.0 12.9 0.00 2.87 0.99 88 1012.6
20260507113604 9 37 8.0 12.9 0.00 2.87 0.99 80 1012.5
20260507113506 9 44 8.0 11.3 0.00 2.87 0.99 91 1012.5
20260507113304 9 47 8.0 11.3 0.00 2.87 0.99 87 1012.5
20260507113203 9 55 9.7 11.3 0.00 2.87 0.99 92 1012.8
20260507113005 8 70 9.7 11.3 0.00 2.87 0.99 90 1012.6
20260507112903 8 68 9.7 11.3 0.00 2.87 0.99 83 1012.7
20260507112804 8 65 9.7 11.3 0.00 2.87 0.99 88 1012.5
20260507112604 8 60 9.7 11.3 0.00 2.87 0.99 84 1012.6
20260507112505 8 54 9.7 11.3 0.00 2.87 0.99 80 1012.8
20260507112404 8 56 9.7 11.3 0.00 2.87 0.99 84 1012.6
20260507112306 8 57 9.7 11.3 0.00 2.87 0.99 84 1012.8
20260507112204 8 46 9.7 11.3 0.00 2.87 0.99 84 1012.6
20260507112005 8 31 8.0 11.3 0.00 2.87 0.99 84 1012.7
20260507111905 8 35 8.0 11.3 0.00 2.87 0.99 89 1012.5
20260507111704 8 36 8.0 11.3 0.00 2.87 0.99 90 1012.5
20260507111603 8 34 9.7 11.3 0.00 2.87 0.99 80 1012.4
20260507111506 8 32 8.0 11.3 0.00 2.87 0.99 82 1012.6
20260507111404 8 25 8.0 11.3 0.00 2.92 0.99 82 1012.7
20260507111104 8 21 8.0 11.3 0.00 2.92 0.99 94 1012.6
20260507111004 7 15 8.0 11.3 0.00 2.92 0.99 89 1012.6
20260507110904 8 12 8.0 14.5 0.00 2.92 0.99 95 1012.7
20260507110804 8 22 8.0 14.5 0.00 2.92 0.99 88 1012.7
20260507110404 8 29 8.0 14.5 0.00 2.92 0.99 90 1012.6
20260507110204 8 27 8.0 14.5 0.00 2.92 0.99 89 1012.7
20260507105904 8 18 6.4 14.5 0.00 2.92 0.99 88 1012.7
20260507105804 8 5 6.4 9.7 0.00 2.92 0.99 88 1012.6
20260507105604 8 356 6.4 9.7 0.00 2.92 0.99 99 1012.5
20260507105504 8 357 6.4 9.7 0.00 2.92 0.99 96 1012.7
20260507105403 7 356 6.4 9.7 0.00 2.95 0.99 94 1012.6
20260507105306 7 354 6.4 9.7 0.00 2.95 0.99 97 1012.6
20260507105104 8 6 6.4 9.7 0.00 2.95 0.99 98 1012.8
20260507104904 8 22 6.4 9.7 0.00 2.97 0.99 97 1012.7
20260507104804 8 22 6.4 9.7 0.00 2.97 0.99 96 1012.8
20260507104704 8 27 6.4 9.7 0.00 2.97 0.99 98 1012.6
20260507104604 8 22 6.4 9.7 0.00 2.97 0.99 97 1012.7
20260507104504 8 25 6.4 9.7 0.00 2.97 0.99 94 1012.6
20260507104404 7 14 6.4 9.7 0.00 3.00 0.99 96 1012.5
20260507104104 7 24 6.4 11.3 0.00 3.00 0.99 96 1012.6
20260507104004 7 18 6.4 11.3 0.00 3.00 0.99 99 1012.6
20260507103904 7 13 6.4 11.3 0.00 3.02 0.99 99 1012.7
20260507103803 7 14 6.4 11.3 0.00 3.02 0.99 99 1012.8
20260507103704 6 14 6.4 11.3 0.00 3.02 0.99 99 1012.5
20260507103505 6 9 6.4 11.3 0.00 3.02 0.99 99 1012.7
20260507103204 7 352 6.4 12.9 0.00 3.02 0.99 99 1012.6
20260507103004 7 337 6.4 12.9 0.00 3.02 0.99 99 1012.6
20260507102904 7 332 6.4 12.9 0.00 3.05 0.99 99 1012.7
20260507102803 6 330 8.0 12.9 0.00 3.05 0.99 99 1012.6
20260507102704 6 330 8.0 12.9 0.00 3.05 0.99 99 1012.6
20260507102504 6 335 8.0 12.9 0.00 3.05 0.99 99 1012.7
20260507102404 6 335 8.0 12.9 0.00 3.12 0.99 99 1012.6
20260507102306 6 335 8.0 12.9 0.00 3.12 0.99 99 1012.7
20260507102204 6 333 8.0 12.9 0.00 3.12 0.99 99 1012.8
20260507102104 6 332 8.0 12.9 0.00 3.12 0.99 99 1012.8
20260507102006 6 336 8.0 12.9 0.00 3.12 0.99 99 1012.6
20260507101904 7 339 6.4 11.3 0.00 3.17 0.99 99 1012.7
20260507101803 7 340 6.4 11.3 0.00 3.17 0.99 99 1012.5
20260507101704 7 341 4.8 6.4 0.00 3.17 0.99 99 1012.8
20260507101604 7 340 4.8 6.4 0.00 3.17 0.99 99 1012.5
20260507101507 7 338 4.8 6.4 0.00 3.17 0.99 99 1012.6
20260507101404 7 338 4.8 11.3 0.00 3.28 0.99 99 1012.7
20260507101304 7 339 4.8 11.3 0.00 3.28 0.99 99 1012.8
20260507101203 7 338 4.8 11.3 0.00 3.28 0.99 99 1012.6
20260507101104 7 337 4.8 11.3 0.00 3.28 0.99 99 1012.7
20260507101004 6 336 4.8 11.3 0.00 3.28 0.99 99 1012.7
20260507100904 6 333 4.8 11.3 0.00 3.30 0.99 99 1012.7
20260507100505 6 325 4.8 11.3 0.00 3.30 0.99 99 1012.6
20260507100404 6 321 4.8 11.3 0.00 3.33 0.99 99 1012.6
20260507100203 6 323 4.8 9.7 0.00 3.33 0.99 99 1012.8
20260507100005 6 332 3.2 9.7 0.00 3.33 0.99 99 1012.7
20260507095904 5 337 3.2 3.2 0.00 3.33 0.99 99 1012.6
20260507095804 5 342 3.2 3.2 0.00 3.33 0.99 99 1012.6
20260507095704 5 349 3.2 3.2 0.00 3.33 0.99 99 1012.5
20260507095604 5 355 3.2 3.2 0.00 3.33 0.99 99 1012.6
20260507095404 5 5 3.2 3.2 0.00 3.33 0.99 99 1012.6
20260507095305 5 3 3.2 3.2 0.00 3.33 0.99 99 1012.8
20260507095204 5 353 3.2 3.2 0.00 3.33 0.99 99 1012.5
20260507095104 5 350 1.6 3.2 0.00 3.33 0.99 99 1012.8
20260507095005 5 351 1.6 6.4 0.00 3.33 0.99 99 1012.7
20260507094904 5 8 1.6 6.4 0.00 3.35 0.99 99 1012.5
20260507094804 5 7 1.6 6.4 0.00 3.35 0.99 99 1012.8
20260507094603 5 309 1.6 6.4 0.00 3.35 0.99 99 1012.6
20260507094504 4 294 1.6 6.4 0.00 3.35 0.99 99 1012.8
20260507094403 5 288 1.6 6.4 0.00 3.35 0.99 99 1012.8
20260507094304 5 307 1.6 6.4 0.00 3.35 0.99 99 1012.8
20260507094204 5 300 1.6 6.4 0.00 3.35 0.99 99 1012.6
20260507094104 5 292 1.6 6.4 0.00 3.35 0.99 99 1012.8
20260507094006 5 300 1.6 6.4 0.00 3.35 0.99 99 1012.9
20260507093904 5 296 1.6 6.4 0.00 3.38 0.99 99 1012.6
20260507093804 5 296 1.6 6.4 0.00 3.38 0.99 99 1012.8
20260507093604 5 5 1.6 3.2 0.00 3.38 0.99 99 1012.8
20260507093508 4 5 1.6 3.2 0.00 3.38 0.99 99 1012.7
20260507093404 4 5 1.6 3.2 0.00 3.38 0.99 99 1012.8
20260507093305 3 8 3.2 3.2 0.00 3.38 0.99 99 1012.9
20260507092903 5 43 1.6 6.4 0.00 3.43 0.99 99 1012.8
20260507092803 4 39 3.2 6.4 0.00 3.43 0.99 99 1012.6
20260507092704 4 27 3.2 6.4 0.00 3.43 0.99 99 1012.5
20260507092604 4 23 3.2 6.4 0.00 3.43 0.99 99 1012.6
20260507092403 4 357 3.2 6.4 0.00 3.45 0.99 99 1012.6
20260507092307 4 1 3.2 6.4 0.00 3.45 0.99 99 1012.6
20260507092204 4 1 4.8 6.4 0.03 3.45 0.99 99 1012.7
20260507092005 5 342 3.2 6.4 0.03 3.45 0.99 99 1012.8
20260507091804 4 315 3.2 6.4 0.03 3.45 0.99 99 1012.6
20260507091603 4 316 3.2 6.4 0.05 3.45 0.99 99 1012.7
20260507091504 4 320 1.6 6.4 0.05 3.45 0.99 99 1012.6
20260507091403 4 319 1.6 3.2 0.05 3.45 0.99 99 1012.8
20260507091304 4 313 1.6 3.2 0.05 3.45 0.99 99 1012.7
20260507091204 4 322 1.6 3.2 0.05 3.45 0.99 99 1012.7
20260507091104 4 328 1.6 3.2 0.10 3.45 0.99 99 1012.9
20260507090904 4 343 3.2 6.4 0.10 3.45 0.99 99 1012.6
20260507090803 4 346 3.2 6.4 0.10 3.45 0.99 99 1012.7
20260507090603 4 349 3.2 6.4 0.10 3.45 0.99 99 1012.7
20260507090504 4 339 3.2 6.4 0.10 3.45 0.99 99 1012.6
20260507090403 4 331 3.2 6.4 0.10 3.45 0.99 99 1012.7
20260507090304 4 324 4.8 6.4 0.10 3.45 0.99 99 1012.5
20260507090204 4 323 4.8 6.4 0.13 3.45 0.99 99 1012.6
20260507090104 4 322 3.2 6.4 0.13 3.45 0.99 99 1012.5
20260507090005 5 319 3.2 6.4 0.13 3.45 0.99 99 1012.6
20260507085904 5 312 3.2 6.4 0.13 3.45 0.99 99 1012.8
20260507085803 5 305 3.2 9.7 0.13 3.45 0.99 99 1012.8
20260507085704 5 307 4.8 9.7 0.13 3.45 0.99 99 1012.5
20260507085604 6 309 4.8 9.7 0.13 3.45 0.99 99 1012.7
20260507085505 6 315 3.2 9.7 0.15 3.45 0.99 99 1012.5
20260507085204 6 337 3.2 9.7 0.15 3.45 0.99 99 1012.6
20260507085104 5 337 3.2 9.7 0.15 3.45 0.99 99 1012.6
20260507085005 5 337 3.2 9.7 0.15 3.45 0.99 99 1012.7
20260507084904 5 337 3.2 9.7 0.15 3.45 0.99 99 1012.6
20260507084804 5 352 3.2 9.7 0.15 3.45 0.99 99 1012.6
20260507084704 5 352 3.2 6.4 0.15 3.45 0.99 99 1012.4
20260507084604 4 354 3.2 3.2 0.15 3.45 0.99 99 1012.5
20260507084505 4 351 3.2 3.2 0.18 3.45 0.99 99 1012.7
20260507084404 4 340 3.2 6.4 0.18 3.48 0.99 99 1012.6
20260507084304 5 338 3.2 6.4 0.18 3.48 0.99 99 1012.6
20260507084103 5 324 3.2 6.4 0.20 3.48 0.99 99 1012.4
20260507084004 5 320 3.2 6.4 0.20 3.48 0.99 99 1012.6
20260507083904 4 317 3.2 6.4 0.20 3.48 0.99 99 1012.4
20260507083704 4 309 3.2 6.4 0.20 3.48 0.99 99 1012.6
20260507083603 4 310 3.2 6.4 0.20 3.48 0.99 99 1012.5
20260507083504 4 314 3.2 6.4 0.20 3.48 0.99 99 1012.6
20260507083303 4 322 4.8 6.4 0.23 3.53 0.99 99 1012.5
20260507083204 4 324 4.8 6.4 0.23 3.53 0.99 99 1012.6
20260507083104 4 326 4.8 6.4 0.23 3.53 0.99 99 1012.4
20260507083005 4 327 3.2 6.4 0.23 3.53 0.99 99 1012.5
20260507082904 4 328 3.2 6.4 0.28 3.58 0.99 99 1012.5
20260507082703 3 333 3.2 6.4 0.28 3.58 0.99 99 1012.5
20260507082603 4 335 3.2 6.4 0.30 3.58 0.99 99 1012.5
20260507082504 4 335 3.2 6.4 0.30 3.58 0.99 99 1012.5
20260507082404 4 326 1.6 6.4 0.30 3.58 0.99 99 1012.5
20260507082306 4 317 1.6 6.4 0.28 3.53 0.97 99 1012.5
20260507082204 4 313 1.6 6.4 0.28 3.53 0.97 99 1012.6
20260507082104 4 313 1.6 6.4 0.28 3.53 0.97 99 1012.6
20260507082004 4 317 1.6 6.4 0.28 3.53 0.97 99 1012.4
20260507081904 3 321 1.6 6.4 0.28 3.53 0.97 99 1012.6
20260507081704 3 338 1.6 6.4 0.23 3.51 0.94 99 1012.4
20260507081604 3 338 1.6 6.4 0.28 3.51 0.94 99 1012.5
20260507081505 3 338 1.6 6.4 0.28 3.51 0.94 99 1012.5
20260507081404 3 338 1.6 6.4 0.28 3.53 0.94 99 1012.3
20260507081304 3 342 1.6 6.4 0.30 3.53 0.94 99 1012.4
20260507081104 3 355 1.6 6.4 0.28 3.51 0.89 99 1012.1
20260507081004 3 348 1.6 6.4 0.28 3.51 0.89 99 1012.2
20260507080704 3 323 1.6 3.2 0.30 3.51 0.89 99 1012.4
20260507080604 3 327 1.6 3.2 0.30 3.51 0.89 99 1012.3
20260507080505 2 332 1.6 3.2 0.30 3.51 0.89 99 1012.3
20260507080404 2 336 1.6 3.2 0.33 3.51 0.89 99 1012.2
20260507080304 2 336 1.6 3.2 0.30 3.48 0.86 99 1012.2
20260507080203 3 334 1.6 3.2 0.30 3.48 0.86 99 1012.4
20260507080104 3 329 3.2 3.2 0.30 3.48 0.86 99 1012.2
20260507080004 3 330 3.2 3.2 0.33 3.48 0.86 99 1012.3
20260507075904 3 334 3.2 3.2 0.33 3.48 0.86 99 1012.2
20260507075804 3 334 3.2 3.2 0.33 3.48 0.86 99 1012.2
20260507075704 3 334 3.2 3.2 0.33 3.48 0.86 99 1012.1
20260507075505 3 333 1.6 3.2 0.33 3.45 0.84 99 1012.2
20260507075306 3 330 1.6 3.2 0.33 3.45 0.84 99 1012.2
20260507075203 3 334 1.6 3.2 0.33 3.45 0.84 99 1012.2
20260507075104 3 338 1.6 3.2 0.33 3.45 0.84 99 1012.2
20260507075004 3 337 1.6 3.2 0.33 3.45 0.84 99 1012.2
20260507074804 3 331 1.6 3.2 0.33 3.45 0.84 99 1012.2
20260507074704 3 331 1.6 3.2 0.33 3.45 0.84 99 1012.2
20260507074604 3 331 1.6 3.2 0.30 3.43 0.81 99 1012.2
20260507074505 3 323 1.6 3.2 0.33 3.43 0.81 99 1012.1
20260507074404 3 325 1.6 3.2 0.33 3.43 0.81 99 1012.1
20260507074303 3 325 1.6 3.2 0.33 3.43 0.81 99 1012.2
20260507074203 3 327 1.6 3.2 0.33 3.43 0.81 99 1012.2
20260507074104 3 325 1.6 3.2 0.30 3.38 0.79 99 1012.3
20260507074005 3 325 1.6 3.2 0.30 3.38 0.79 99 1012.1
20260507073904 3 325 1.6 3.2 0.30 3.38 0.79 99 1012.2
20260507073804 3 327 1.6 3.2 0.33 3.38 0.79 99 1012.2
20260507073704 3 328 1.6 3.2 0.33 3.38 0.79 99 1012.3
20260507073604 2 329 1.6 3.2 0.33 3.38 0.79 99 1012.3
20260507073504 3 330 3.2 3.2 0.33 3.38 0.79 99 1012.2
20260507073404 3 321 3.2 6.4 0.30 3.35 0.76 99 1012.3
20260507073104 3 306 3.2 6.4 0.33 3.35 0.76 99 1012.1
20260507073004 3 308 3.2 6.4 0.30 3.33 0.71 99 1012.2
20260507072903 3 311 3.2 6.4 0.30 3.33 0.71 99 1012.0
20260507072804 2 317 3.2 6.4 0.30 3.33 0.71 99 1011.9
20260507072704 2 316 3.2 6.4 0.30 3.33 0.71 99 1012.3
20260507072604 2 318 3.2 6.4 0.28 3.30 0.69 99 1012.2
20260507072504 2 320 3.2 6.4 0.30 3.30 0.69 99 1012.1
20260507072404 2 327 3.2 6.4 0.30 3.33 0.69 99 1012.1
20260507072306 2 332 3.2 6.4 0.30 3.33 0.69 99 1012.2
20260507072204 3 333 3.2 6.4 0.30 3.33 0.69 99 1012.1
20260507072104 3 338 3.2 6.4 0.30 3.33 0.69 99 1012.0
20260507072004 3 341 3.2 6.4 0.30 3.33 0.69 99 1011.8
20260507071904 3 342 1.6 6.4 0.30 3.33 0.69 99 1012.1
20260507071803 3 329 1.6 3.2 0.30 3.33 0.69 99 1012.2
20260507071703 3 325 1.6 3.2 0.28 3.30 0.66 99 1012.1
20260507071604 3 314 1.6 3.2 0.28 3.30 0.66 99 1012.0
20260507071404 3 316 1.6 6.4 0.28 3.30 0.66 99 1012.1
20260507071304 3 318 1.6 6.4 0.28 3.28 0.64 99 1011.9
20260507071005 3 319 1.6 6.4 0.28 3.28 0.64 99 1011.8
20260507070904 3 321 1.6 6.4 0.23 3.25 0.61 99 1012.0
20260507070804 3 326 3.2 6.4 0.23 3.25 0.61 99 1011.7
20260507070604 2 332 3.2 6.4 0.23 3.25 0.61 99 1011.9
20260507070504 3 329 3.2 6.4 0.20 3.20 0.56 99 1011.9
20260507070303 3 322 3.2 6.4 0.20 3.20 0.56 99 1011.9
20260507070204 3 326 3.2 6.4 0.20 3.20 0.56 99 1011.9
20260507065904 3 327 3.2 6.4 0.18 3.17 0.53 99 1011.8
20260507065804 3 324 1.6 6.4 0.18 3.17 0.53 99 1011.9
20260507065704 3 317 1.6 6.4 0.18 3.17 0.53 99 1011.8
20260507065603 3 319 1.6 6.4 0.15 3.15 0.51 99 1011.9
20260507065504 3 322 1.6 6.4 0.15 3.15 0.51 99 1011.8
20260507065404 3 325 1.6 6.4 0.15 3.15 0.51 99 1012.1
20260507065306 3 333 1.6 6.4 0.15 3.15 0.51 99 1011.9
20260507065204 3 315 0.0 3.2 0.15 3.15 0.51 99 1011.9
20260507065104 3 315 0.0 3.2 0.15 3.15 0.51 99 1011.8
20260507064804 2 315 0.0 3.2 0.15 3.15 0.51 99 1011.9
20260507064704 2 322 0.0 3.2 0.15 3.15 0.51 99 1011.8
20260507064604 2 314 0.0 3.2 0.13 3.12 0.48 99 1011.8
20260507064504 2 314 0.0 3.2 0.13 3.12 0.48 99 1011.7
20260507064303 2 314 0.0 3.2 0.13 3.12 0.48 99 1011.8
20260507064204 2 325 0.0 3.2 0.13 3.12 0.48 99 1011.8
20260507064105 2 325 0.0 3.2 0.13 3.12 0.48 99 1011.9
20260507064005 2 317 1.6 3.2 0.13 3.12 0.48 99 1011.9
20260507063904 2 316 1.6 3.2 0.10 3.10 0.46 99 1012.1
20260507063804 2 316 1.6 3.2 0.10 3.10 0.46 99 1011.8
20260507063703 2 316 1.6 3.2 0.10 3.10 0.46 99 1011.8
20260507063403 2 316 1.6 3.2 0.13 3.10 0.46 99 1011.8
20260507063303 2 317 0.0 3.2 0.13 3.10 0.46 99 1011.6
20260507063204 2 307 0.0 3.2 0.10 3.05 0.43 99 1011.7
20260507063104 2 307 0.0 3.2 0.10 3.05 0.43 99 1011.6
20260507063005 3 314 0.0 3.2 0.10 3.05 0.43 99 1011.8
20260507062904 3 314 0.0 3.2 0.10 3.05 0.43 99 1011.7
20260507062804 3 0 0.0 0.0 0.10 3.05 0.43 99 1011.8
20260507062703 2 0 0.0 0.0 0.10 3.05 0.43 99 1011.8
20260507062603 2 0 0.0 0.0 0.05 3.02 0.38 99 1011.7
20260507062504 2 0 0.0 0.0 0.05 3.02 0.38 99 1011.7
20260507062306 2 0 0.0 0.0 0.05 3.02 0.38 99 1011.8
20260507062204 2 0 0.0 0.0 0.05 3.02 0.38 99 1011.7
20260507062103 1 0 0.0 0.0 0.05 3.02 0.38 99 1011.6
20260507062004 1 0 0.0 0.0 0.05 3.02 0.38 99 1011.8
20260507061803 1 0 0.0 0.0 0.05 3.02 0.38 99 1011.9
20260507061703 1 0 0.0 0.0 0.05 3.02 0.38 99 1011.7
20260507061603 1 0 0.0 0.0 0.05 3.02 0.38 99 1011.7
20260507061504 1 0 0.0 0.0 0.05 3.02 0.38 99 1011.7
20260507061403 1 0 0.0 0.0 0.03 3.00 0.36 99 1011.6
20260507061304 1 0 0.0 0.0 0.03 3.00 0.36 99 1011.6
20260507061104 1 0 0.0 0.0 0.03 3.00 0.36 99 1011.7
20260507060904 1 0 0.0 0.0 0.03 3.00 0.36 99 1011.7
20260507060803 1 0 0.0 0.0 0.05 3.00 0.36 99 1011.7
20260507060704 1 0 0.0 0.0 0.05 3.00 0.36 99 1011.7
20260507060604 1 0 0.0 0.0 0.05 3.00 0.36 99 1011.6
20260507060505 1 0 0.0 0.0 0.05 3.00 0.36 99 1011.8
20260507060404 1 0 0.0 0.0 0.05 3.05 0.36 99 1011.7
20260507060304 1 0 0.0 0.0 0.05 3.05 0.36 99 1011.8
20260507060104 1 0 0.0 0.0 0.05 3.05 0.36 99 1011.7
20260507060004 1 0 0.0 0.0 0.05 3.05 0.36 99 1011.7
20260507055903 1 0 0.0 0.0 0.05 3.05 0.36 99 1011.6
20260507055804 1 0 0.0 0.0 0.05 3.05 0.36 99 1011.6
20260507055704 1 0 0.0 0.0 0.05 3.05 0.36 99 1011.9
20260507055404 1 0 0.0 0.0 0.05 3.10 0.36 99 1011.6
20260507055306 1 0 0.0 0.0 0.05 3.10 0.36 99 1011.5
20260507055104 1 0 0.0 0.0 0.05 3.10 0.36 99 1011.6
20260507054904 1 0 0.0 0.0 0.05 3.10 0.36 99 1011.7
20260507054804 1 0 0.0 0.0 0.05 3.10 0.36 99 1011.5
20260507054704 1 0 0.0 0.0 0.05 3.10 0.36 99 1011.4
20260507054603 1 0 0.0 0.0 0.05 3.10 0.36 99 1011.6
20260507054504 1 0 0.0 0.0 0.10 3.10 0.36 99 1011.7
20260507054304 0 0 0.0 0.0 0.10 3.10 0.36 99 1011.6
20260507054204 0 0 0.0 0.0 0.10 3.10 0.36 99 1011.5
20260507054104 0 0 0.0 0.0 0.10 3.10 0.36 99 1011.5
20260507054004 0 0 0.0 0.0 0.10 3.10 0.36 99 1011.5
20260507053904 0 0 0.0 0.0 0.10 3.15 0.36 99 1011.6
20260507053803 0 0 0.0 0.0 0.10 3.15 0.36 99 1011.5
20260507053604 0 0 0.0 0.0 0.05 3.12 0.33 99 1011.5
20260507053504 0 0 0.0 0.0 0.05 3.12 0.33 99 1011.4
20260507053404 0 0 0.0 0.0 0.05 3.12 0.33 99 1011.4
20260507053304 0 0 0.0 0.0 0.05 3.12 0.33 99 1011.5
20260507053204 0 0 0.0 0.0 0.05 3.12 0.33 99 1011.7
20260507053005 0 0 0.0 0.0 0.05 3.12 0.33 99 1011.5
20260507052904 0 0 0.0 0.0 0.05 3.12 0.33 99 1011.6
20260507052803 0 0 0.0 0.0 0.05 3.12 0.33 99 1011.4
20260507052704 0 0 0.0 0.0 0.05 3.12 0.33 99 1011.2
20260507052604 0 0 0.0 0.0 0.05 3.12 0.33 99 1011.4
20260507052505 0 0 0.0 0.0 0.05 3.12 0.33 99 1011.4
20260507052404 0 135 0.0 3.2 0.05 3.12 0.33 99 1011.6
20260507052306 0 135 0.0 3.2 0.05 3.12 0.33 99 1011.5
20260507052203 0 135 0.0 3.2 0.05 3.12 0.33 99 1011.5
20260507051903 0 150 0.0 3.2 0.10 3.12 0.33 99 1011.5
20260507051803 0 153 1.6 3.2 0.10 3.12 0.33 99 1011.3
20260507051704 0 154 1.6 3.2 0.10 3.12 0.33 99 1011.4
20260507051604 0 155 1.6 3.2 0.10 3.12 0.33 99 1011.5
20260507051505 0 155 1.6 3.2 0.10 3.12 0.33 99 1011.4
20260507051404 0 159 1.6 3.2 0.10 3.12 0.33 99 1011.3
20260507051303 0 159 1.6 3.2 0.10 3.12 0.33 99 1011.2
20260507051203 0 159 3.2 3.2 0.10 3.12 0.33 99 1011.4
20260507051104 0 159 3.2 3.2 0.10 3.12 0.33 99 1011.3
20260507051004 0 160 3.2 3.2 0.10 3.12 0.33 99 1011.4
20260507050704 0 160 3.2 3.2 0.05 3.10 0.30 99 1011.4
20260507050604 0 160 3.2 3.2 0.05 3.10 0.30 99 1011.5
20260507050505 0 160 3.2 3.2 0.05 3.10 0.30 99 1011.4
20260507050404 0 161 3.2 3.2 0.05 3.10 0.30 99 1011.2
20260507050303 0 160 3.2 3.2 0.05 3.10 0.30 99 1011.5
20260507050204 0 160 3.2 3.2 0.05 3.10 0.30 99 1011.4
20260507050104 0 160 3.2 3.2 0.05 3.10 0.30 99 1011.3
20260507050005 0 159 3.2 3.2 0.05 3.10 0.30 99 1011.4
20260507045904 0 159 3.2 3.2 0.05 3.10 0.30 99 1011.5
20260507045804 0 159 3.2 3.2 0.05 3.10 0.30 99 1011.5
20260507045704 0 159 3.2 3.2 0.05 3.10 0.30 99 1011.3
20260507045604 0 159 3.2 3.2 0.05 3.10 0.30 99 1011.3
20260507045504 0 159 3.2 3.2 0.05 3.10 0.30 99 1011.3
20260507045404 0 158 3.2 3.2 0.05 3.10 0.30 99 1011.1
20260507045306 0 156 3.2 3.2 0.05 3.10 0.30 99 1011.4
20260507045204 0 155 3.2 3.2 0.05 3.10 0.30 99 1011.2
20260507045103 0 155 3.2 3.2 0.05 3.10 0.30 99 1011.4
20260507044903 0 155 3.2 3.2 0.05 3.10 0.30 99 1011.1
20260507044803 0 155 3.2 3.2 0.05 3.10 0.30 99 1011.3
20260507044704 0 155 3.2 3.2 0.05 3.10 0.30 99 1011.2
20260507044604 0 155 3.2 3.2 0.05 3.10 0.30 99 1011.1
20260507044505 0 155 3.2 3.2 0.03 3.05 0.28 99 1011.2
20260507044404 0 155 3.2 3.2 0.03 3.05 0.28 99 1011.3
20260507044304 0 154 3.2 3.2 0.03 3.05 0.28 99 1011.3
20260507044203 0 155 3.2 3.2 0.03 3.05 0.28 99 1011.3
20260507044103 0 155 3.2 3.2 0.03 3.05 0.28 99 1011.5
20260507044004 0 155 3.2 3.2 0.03 3.05 0.28 99 1011.2
20260507043904 0 152 3.2 3.2 0.03 3.05 0.28 99 1011.2
20260507043804 0 151 3.2 3.2 0.03 3.05 0.28 99 1011.4
20260507043704 0 149 3.2 3.2 0.03 3.05 0.28 99 1011.4
20260507043603 0 147 3.2 3.2 0.03 3.05 0.28 99 1011.4
20260507043504 0 144 3.2 3.2 0.03 3.05 0.28 99 1011.4
20260507043303 0 147 3.2 6.4 0.03 3.05 0.28 99 1011.4
20260507043204 0 148 3.2 6.4 0.03 3.05 0.28 99 1011.4
20260507043104 0 146 3.2 6.4 0.03 3.05 0.28 99 1011.3
20260507043004 0 144 3.2 6.4 0.03 3.05 0.28 99 1011.3
20260507042903 0 146 3.2 6.4 0.03 3.05 0.28 99 1011.3
20260507042803 0 148 4.8 6.4 0.03 3.05 0.28 99 1011.3
20260507042704 0 148 4.8 6.4 0.03 3.05 0.28 99 1011.3
20260507042604 0 150 4.8 6.4 0.03 3.05 0.28 99 1011.2
20260507042504 0 149 4.8 6.4 0.03 3.05 0.28 99 1011.3
20260507042404 0 149 3.2 6.4 0.03 3.05 0.28 99 1011.4
20260507042306 0 146 3.2 6.4 0.03 3.05 0.28 99 1011.4
20260507042204 0 142 3.2 6.4 0.03 3.05 0.28 99 1011.3
20260507042104 0 144 1.6 6.4 0.03 3.05 0.28 99 1011.2
20260507042005 -1 144 1.6 6.4 0.00 3.02 0.23 99 1011.4
20260507041904 -1 142 1.6 6.4 0.00 3.02 0.23 99 1011.2
20260507041803 0 124 1.6 3.2 0.00 3.02 0.23 99 1011.3
20260507041603 0 48 1.6 3.2 0.00 3.02 0.23 99 1011.3
20260507041403 0 25 1.6 3.2 0.00 3.02 0.23 99 1011.1
20260507041303 0 23 1.6 3.2 0.00 3.02 0.23 99 1011.2
20260507041204 0 23 1.6 3.2 0.00 3.02 0.23 99 1011.2
20260507041104 0 23 1.6 3.2 0.00 3.02 0.23 99 1011.3
20260507041005 0 23 1.6 3.2 0.00 3.02 0.23 99 1011.2
20260507040904 0 23 1.6 3.2 0.03 3.02 0.23 99 1011.2
20260507040804 0 23 1.6 3.2 0.03 3.02 0.23 99 1011.2
20260507040603 0 15 0.0 3.2 0.03 3.02 0.23 99 1011.3
20260507040504 0 32 0.0 3.2 0.03 3.02 0.23 99 1011.2
20260507040403 0 66 0.0 3.2 0.03 3.02 0.23 99 1011.3
20260507040304 0 75 0.0 3.2 0.03 3.02 0.23 99 1011.3
20260507040204 0 81 1.6 3.2 0.03 3.02 0.23 99 1011.0
20260507040104 0 83 1.6 3.2 0.03 3.02 0.23 99 1011.4
20260507040005 0 90 1.6 3.2 0.03 3.02 0.23 99 1011.3
20260507035904 0 88 1.6 3.2 0.03 3.02 0.23 99 1011.3
20260507035703 0 91 3.2 3.2 0.03 3.02 0.23 99 1011.3
20260507035604 0 93 3.2 6.4 0.03 3.02 0.23 99 1011.3
20260507035504 0 91 3.2 6.4 0.03 3.02 0.23 99 1011.1
20260507035306 0 103 3.2 6.4 0.03 3.02 0.23 99 1011.5
20260507035104 -1 104 4.8 6.4 0.03 3.02 0.23 99 1011.3
20260507035005 0 100 4.8 6.4 0.03 3.02 0.23 99 1011.4
20260507034904 0 105 4.8 6.4 0.03 3.02 0.23 99 1011.4
20260507034803 0 108 4.8 6.4 0.03 3.02 0.23 99 1011.3
20260507034703 0 106 4.8 6.4 0.03 3.02 0.23 99 1011.4
20260507034604 0 105 4.8 6.4 0.03 3.02 0.23 99 1011.4
20260507034504 0 114 4.8 6.4 0.03 3.02 0.23 99 1011.5
20260507034404 0 108 4.8 6.4 0.03 3.02 0.23 99 1011.4
20260507034304 0 107 4.8 6.4 0.03 3.02 0.23 99 1011.5
20260507034204 -1 105 3.2 6.4 0.03 3.02 0.23 99 1011.3
20260507034103 -1 105 4.8 9.7 0.03 3.02 0.23 99 1011.4
20260507034004 -1 108 4.8 9.7 0.03 3.02 0.23 99 1011.4
20260507033903 -1 111 4.8 9.7 0.03 3.02 0.23 99 1011.3
20260507033803 -1 111 6.4 9.7 0.03 3.02 0.23 99 1011.7
20260507033703 -1 116 6.4 9.7 0.03 3.02 0.23 99 1011.5
20260507033504 -1 112 6.4 9.7 0.03 3.02 0.23 99 1011.7
20260507033404 -1 116 6.4 9.7 0.03 3.02 0.23 99 1011.4
20260507033304 0 115 8.0 9.7 0.03 3.02 0.23 99 1011.5
20260507033203 0 116 8.0 9.7 0.03 3.02 0.23 99 1011.5
20260507033103 0 112 8.0 9.7 0.03 3.02 0.23 99 1011.5
20260507033004 0 115 6.4 9.7 0.03 3.02 0.23 99 1011.6
20260507032903 0 118 6.4 9.7 0.03 3.02 0.23 99 1011.5
20260507032804 0 120 6.4 9.7 0.03 3.02 0.23 99 1011.3
20260507032704 0 119 6.4 9.7 0.03 3.02 0.23 99 1011.4
20260507032504 0 119 6.4 9.7 0.03 3.02 0.23 99 1011.5
20260507032403 0 115 6.4 9.7 0.03 3.02 0.23 99 1011.5
20260507032305 0 112 6.4 9.7 0.05 3.02 0.23 99 1011.5
20260507032203 0 113 6.4 9.7 0.05 3.02 0.23 99 1011.2
20260507032104 0 122 4.8 6.4 0.05 3.02 0.23 99 1011.3
20260507031904 0 103 4.8 6.4 0.05 3.02 0.23 99 1011.4
20260507031804 0 96 4.8 6.4 0.05 3.02 0.23 99 1011.3
20260507031703 0 90 4.8 6.4 0.05 3.02 0.23 99 1011.6
20260507031603 0 86 4.8 6.4 0.05 3.02 0.23 99 1011.4
20260507031504 0 89 3.2 6.4 0.05 3.02 0.23 99 1011.6
20260507031403 0 90 3.2 6.4 0.05 3.02 0.23 99 1011.2
20260507031303 0 94 3.2 3.2 0.05 3.02 0.23 99 1011.3
20260507031204 0 93 3.2 6.4 0.05 3.02 0.23 99 1011.3
20260507031104 0 96 3.2 6.4 0.05 3.02 0.23 99 1011.4
20260507031004 0 99 3.2 6.4 0.03 3.00 0.20 99 1011.3
20260507030803 0 109 3.2 6.4 0.03 3.00 0.20 99 1011.3
20260507030603 0 119 3.2 6.4 0.03 3.00 0.20 99 1011.5
20260507030504 0 120 3.2 6.4 0.05 3.00 0.20 99 1011.1
20260507030403 0 120 1.6 6.4 0.05 3.00 0.20 99 1011.2
20260507030204 0 121 1.6 3.2 0.05 3.00 0.20 99 1011.2
20260507030104 0 114 1.6 3.2 0.05 3.00 0.20 99 1011.3
20260507030005 0 109 1.6 3.2 0.05 3.00 0.20 99 1011.0
20260507025904 0 109 1.6 3.2 0.05 3.00 0.20 99 1011.0
20260507025804 0 103 1.6 3.2 0.05 3.00 0.20 99 1011.2
20260507025703 0 95 1.6 3.2 0.05 3.00 0.20 99 1011.1
20260507025604 0 82 1.6 3.2 0.05 3.00 0.20 99 1011.4
20260507025504 0 74 0.0 3.2 0.05 3.00 0.20 99 1011.3
20260507025404 0 74 0.0 3.2 0.05 3.00 0.20 99 1011.0
20260507025306 0 74 0.0 3.2 0.05 3.00 0.20 99 1011.2
20260507025203 0 75 0.0 3.2 0.05 3.00 0.20 99 1011.2
20260507025103 0 100 0.0 3.2 0.05 3.00 0.20 99 1011.2
20260507025004 0 110 0.0 3.2 0.05 3.00 0.20 99 1011.1
20260507024903 0 110 0.0 3.2 0.05 3.00 0.20 99 1011.2
20260507024804 0 129 0.0 3.2 0.05 3.00 0.20 99 1011.0
20260507024704 0 121 0.0 3.2 0.05 3.00 0.20 99 1011.0
20260507024603 0 119 0.0 3.2 0.05 3.00 0.20 99 1011.2
20260507024504 0 119 0.0 3.2 0.05 3.00 0.20 99 1011.2
20260507024403 0 119 0.0 3.2 0.05 3.00 0.20 99 1011.1
20260507024203 0 119 0.0 3.2 0.05 3.00 0.20 99 1010.8
20260507024104 0 120 0.0 3.2 0.05 3.00 0.20 99 1010.9
20260507024004 0 124 1.6 3.2 0.10 3.00 0.20 99 1010.9
20260507023904 0 124 1.6 3.2 0.10 3.00 0.20 99 1010.9
20260507023804 0 121 1.6 3.2 0.10 3.00 0.20 99 1010.9
20260507023704 0 117 1.6 3.2 0.10 3.00 0.20 99 1011.0
20260507023603 0 119 1.6 3.2 0.10 3.00 0.20 99 1011.1
20260507023504 0 121 1.6 3.2 0.10 3.00 0.20 99 1010.8
20260507023403 0 116 1.6 3.2 0.10 3.00 0.20 99 1011.1
20260507023303 0 114 1.6 3.2 0.10 3.00 0.20 99 1011.0
20260507023204 0 117 1.6 3.2 0.10 3.00 0.20 99 1011.2
20260507023104 0 117 1.6 3.2 0.10 3.00 0.20 99 1011.1
20260507023005 0 119 1.6 6.4 0.10 3.00 0.20 99 1011.1
20260507022904 0 119 3.2 6.4 0.10 3.00 0.20 99 1011.1
20260507022804 0 121 3.2 6.4 0.10 3.00 0.20 99 1011.1
20260507022704 0 125 3.2 6.4 0.10 3.00 0.20 99 1011.3
20260507022603 0 125 3.2 6.4 0.10 3.00 0.20 99 1011.1
20260507022403 0 130 1.6 6.4 0.05 2.97 0.18 99 1011.2
20260507022306 0 132 1.6 6.4 0.05 2.97 0.18 99 1011.2
20260507022204 0 121 1.6 6.4 0.05 2.97 0.18 99 1011.1
20260507022103 0 110 3.2 6.4 0.05 2.97 0.18 99 1011.1
20260507022004 0 105 1.6 6.4 0.05 2.97 0.18 99 1011.2
20260507021903 0 105 3.2 6.4 0.05 2.97 0.18 99 1011.1
20260507021803 0 103 3.2 6.4 0.05 2.97 0.18 99 1010.9
20260507021703 0 99 3.2 6.4 0.10 2.97 0.18 99 1011.0
20260507021604 0 98 3.2 6.4 0.10 2.97 0.18 99 1011.0
20260507021504 0 99 3.2 6.4 0.10 2.97 0.18 99 1011.1
20260507021404 0 103 4.8 6.4 0.10 2.97 0.18 99 1011.1
20260507021304 0 106 4.8 6.4 0.10 2.97 0.18 99 1010.9
20260507021204 0 109 4.8 6.4 0.10 2.97 0.18 99 1011.0
20260507021103 0 114 4.8 6.4 0.10 2.97 0.18 99 1010.9
20260507021004 0 115 4.8 6.4 0.10 2.97 0.18 99 1010.9
20260507020903 0 118 3.2 6.4 0.10 2.97 0.18 99 1011.0
20260507020804 0 118 3.2 6.4 0.13 2.97 0.18 99 1010.9
20260507020604 0 121 3.2 6.4 0.13 2.97 0.18 99 1010.8
20260507020504 0 122 3.2 6.4 0.10 2.95 0.15 99 1011.1
20260507020404 0 120 3.2 6.4 0.10 2.95 0.15 99 1010.9
20260507020303 0 118 3.2 3.2 0.10 2.95 0.15 99 1011.0
20260507020203 0 119 3.2 3.2 0.10 2.95 0.15 99 1011.1
20260507020103 0 118 3.2 6.4 0.13 2.95 0.15 99 1011.0
20260507020004 0 120 3.2 6.4 0.13 2.95 0.15 99 1010.9
20260507015904 0 119 3.2 6.4 0.13 2.95 0.15 99 1010.9
20260507015804 0 118 3.2 6.4 0.13 2.95 0.15 99 1010.9
20260507015703 0 121 3.2 6.4 0.13 2.95 0.15 99 1010.9
20260507015603 0 127 3.2 6.4 0.13 2.95 0.15 99 1010.9
20260507015504 0 130 3.2 6.4 0.13 2.95 0.15 99 1010.9
20260507015306 0 132 3.2 6.4 0.13 2.95 0.15 99 1010.9
20260507015203 0 134 3.2 9.7 0.13 2.95 0.15 99 1010.9
20260507015103 0 141 3.2 9.7 0.13 2.95 0.15 99 1011.0
20260507015004 0 141 4.8 9.7 0.13 2.95 0.15 99 1011.0
20260507014904 0 140 4.8 9.7 0.13 2.95 0.15 99 1010.9
20260507014804 0 138 4.8 9.7 0.13 2.95 0.15 99 1010.9
20260507014704 0 142 4.8 9.7 0.13 2.95 0.15 99 1010.8
20260507014603 0 143 4.8 9.7 0.13 2.95 0.15 99 1010.8
20260507014504 0 141 4.8 9.7 0.13 2.95 0.15 99 1011.0
20260507014403 0 139 4.8 9.7 0.13 2.95 0.15 99 1010.9
20260507014304 0 141 4.8 9.7 0.13 2.95 0.15 99 1010.8
20260507014204 0 139 4.8 9.7 0.13 2.95 0.15 99 1011.0
20260507014104 0 129 4.8 9.7 0.13 2.95 0.15 99 1010.8
20260507014004 0 124 3.2 6.4 0.10 2.92 0.13 99 1010.8
20260507013903 0 124 4.8 11.3 0.10 2.92 0.13 99 1010.8
20260507013803 0 125 4.8 11.3 0.10 2.92 0.13 99 1010.7
20260507013504 0 114 4.8 11.3 0.10 2.92 0.13 99 1010.8
20260507013403 0 114 4.8 11.3 0.10 2.92 0.13 99 1010.8
20260507013206 0 113 4.8 11.3 0.10 2.92 0.13 99 1010.9
20260507013104 0 115 4.8 11.3 0.10 2.92 0.13 99 1010.8
20260507013004 0 120 4.8 11.3 0.10 2.92 0.13 99 1010.8
20260507012904 0 120 4.8 11.3 0.10 2.92 0.13 99 1010.7
20260507012803 0 115 4.8 6.4 0.10 2.92 0.13 99 1010.7
20260507012703 0 113 4.8 6.4 0.10 2.92 0.13 99 1010.7
20260507012603 0 113 4.8 6.4 0.10 2.92 0.13 99 1010.8
20260507012504 0 115 4.8 6.4 0.10 2.92 0.13 99 1010.8
20260507012403 0 119 4.8 6.4 0.10 2.92 0.13 99 1010.7
20260507012306 0 117 4.8 6.4 0.10 2.92 0.13 99 1010.7
20260507012204 0 114 4.8 9.7 0.10 2.92 0.13 99 1010.8
20260507012103 0 114 4.8 9.7 0.10 2.92 0.13 99 1010.9
20260507012004 0 106 4.8 9.7 0.10 2.92 0.13 99 1010.7
20260507011903 0 100 4.8 9.7 0.10 2.95 0.13 99 1010.8
20260507011803 0 114 4.8 12.9 0.05 2.92 0.10 99 1010.9
20260507011704 0 119 6.4 12.9 0.05 2.92 0.10 99 1010.9
20260507011604 0 122 6.4 12.9 0.05 2.92 0.10 99 1010.9
20260507011505 0 126 8.0 12.9 0.05 2.92 0.10 99 1011.0
20260507011404 0 124 8.0 12.9 0.05 2.92 0.10 99 1010.8
20260507011303 0 126 8.0 12.9 0.05 2.92 0.10 99 1010.9
20260507011203 0 130 8.0 12.9 0.05 2.92 0.10 99 1010.9
20260507011004 0 135 6.4 12.9 0.05 2.92 0.10 99 1010.9
20260507010903 0 133 8.0 12.9 0.03 2.87 0.05 99 1010.8
20260507010804 0 130 8.0 12.9 0.03 2.87 0.05 99 1010.7
20260507010704 0 130 8.0 11.3 0.03 2.87 0.05 99 1010.7
20260507010504 0 123 6.4 9.7 0.03 2.87 0.05 99 1010.8
20260507010404 0 125 6.4 9.7 0.03 2.87 0.05 99 1011.0
20260507010303 0 125 6.4 11.3 0.03 2.87 0.05 99 1011.1
20260507010203 0 126 8.0 11.3 0.00 2.84 0.03 99 1010.9
20260507010104 0 127 8.0 11.3 0.00 2.84 0.03 99 1011.0
20260507010004 0 129 8.0 11.3 0.00 2.84 0.03 99 1010.8
20260507005904 0 134 8.0 11.3 0.00 2.84 0.03 99 1011.0
20260507005803 0 140 8.0 12.9 0.00 2.84 0.03 99 1010.9
20260507005703 0 134 8.0 12.9 0.00 2.84 0.03 99 1010.9
20260507005604 0 134 6.4 12.9 0.00 2.84 0.03 99 1011.0
20260507005504 0 132 8.0 12.9 0.00 2.84 0.03 99 1011.0
20260507005404 0 130 8.0 12.9 0.00 2.84 0.03 99 1010.8
20260507005305 0 127 8.0 12.9 0.00 2.84 0.03 99 1010.9
20260507005203 0 119 8.0 12.9 0.00 2.84 0.03 99 1010.9
20260507005103 0 115 8.0 12.9 0.00 2.84 0.03 99 1011.0
20260507004903 0 111 8.0 12.9 0.00 2.84 0.03 99 1011.0
20260507004803 0 104 8.0 11.3 0.00 2.84 0.03 99 1010.9
20260507004704 0 109 6.4 11.3 0.00 2.84 0.03 99 1011.0
20260507004603 0 109 6.4 11.3 0.00 2.84 0.03 99 1011.0
20260507004504 0 108 6.4 11.3 0.00 2.84 0.03 99 1010.9
20260507004403 0 109 6.4 11.3 0.00 2.84 0.03 99 1011.0
20260507004303 0 112 6.4 11.3 0.00 2.84 0.03 99 1011.0
20260507004203 0 116 4.8 11.3 0.00 2.84 0.03 99 1011.0
20260507004104 0 118 4.8 11.3 0.00 2.84 0.03 99 1010.8
20260507004004 0 117 4.8 6.4 0.00 2.84 0.03 99 1011.1
20260507003903 0 120 3.2 6.4 0.00 2.84 0.03 99 1011.1
20260507003603 0 126 3.2 6.4 0.00 2.84 0.03 99 1011.1
20260507003504 0 131 3.2 6.4 0.00 2.84 0.03 99 1011.0
20260507003303 0 127 1.6 3.2 0.00 2.87 0.03 99 1011.0
20260507003104 0 130 1.6 3.2 0.00 2.87 0.03 99 1011.0
20260507003005 0 129 1.6 3.2 0.00 2.87 0.03 99 1010.9
20260507002904 0 131 1.6 3.2 0.00 2.87 0.03 99 1011.0
20260507002803 0 134 1.6 3.2 0.00 2.87 0.03 99 1011.0
20260507002703 0 135 1.6 3.2 0.00 2.87 0.03 99 1010.8
20260507002603 0 138 1.6 3.2 0.00 2.87 0.03 99 1010.8
20260507002504 0 137 1.6 3.2 0.00 2.87 0.03 99 1011.0
20260507002404 0 134 1.6 3.2 0.00 2.87 0.03 99 1010.8
20260507002204 0 141 1.6 3.2 0.00 2.87 0.03 99 1010.8
20260507002103 0 140 3.2 3.2 0.00 2.87 0.03 99 1011.0
20260507002004 0 141 3.2 3.2 0.00 2.87 0.03 99 1011.0
20260507001903 0 142 3.2 3.2 0.00 2.87 0.03 99 1011.2
20260507001803 0 142 3.2 3.2 0.00 2.87 0.03 99 1011.0
20260507001704 0 145 3.2 3.2 0.00 2.87 0.03 99 1010.9
20260507001604 0 143 3.2 3.2 0.00 2.87 0.03 99 1011.0
20260507001504 0 143 3.2 3.2 0.00 2.87 0.03 99 1010.9
20260507001404 0 146 3.2 3.2 0.00 2.87 0.03 99 1011.0
20260507001203 0 143 3.2 3.2 0.00 2.87 0.03 99 1010.9
20260507001103 0 143 3.2 3.2 0.00 2.87 0.03 99 1011.0
20260507001004 0 141 3.2 3.2 0.00 2.87 0.03 99 1011.0
20260507000903 0 139 3.2 3.2 0.00 2.87 0.03 99 1010.8
20260507000804 0 144 3.2 3.2 0.00 2.87 0.03 99 1010.8
20260507000704 0 138 3.2 3.2 0.00 2.87 0.03 99 1011.1
20260507000603 0 137 3.2 6.4 0.00 2.87 0.03 99 1011.0
20260507000505 0 134 3.2 6.4 0.00 2.87 0.03 99 1011.0
20260507000405 0 140 3.2 6.4 0.00 2.87 0.03 99 1010.8
20260507000303 0 137 3.2 6.4 0.00 2.87 0.03 99 1011.0
20260507000205 0 136 4.8 6.4 0.00 2.87 0.03 99 1011.0
20260507000104 0 133 4.8 6.4 0.00 2.87 0.03 99 1011.0
20260507000005 0 130 4.8 6.4 0.00 2.87 0.03 99 1010.9
20260506235903 0 130 3.2 6.4 0.00 2.87 0.03 99 1010.8
20260506235703 0 121 3.2 6.4 0.00 2.87 0.03 99 1011.1
20260506235504 0 111 3.2 6.4 0.00 2.87 0.03 99 1010.8
20260506235404 0 87 3.2 6.4 0.00 2.87 0.03 99 1011.0
20260506235204 0 70 1.6 6.4 0.03 2.87 0.03 99 1011.0
20260506235103 0 67 1.6 6.4 0.03 2.87 0.03 99 1011.0
20260506235004 0 63 1.6 6.4 0.03 2.87 0.03 99 1011.0
20260506234903 0 63 1.6 6.4 0.03 2.87 0.03 99 1010.9
20260506234804 0 63 1.6 6.4 0.03 2.87 0.03 99 1010.9
20260506234704 0 66 1.6 6.4 0.03 2.87 0.03 99 1010.9
20260506234604 0 74 1.6 6.4 0.03 2.87 0.03 99 1010.7
20260506234504 0 73 1.6 6.4 0.03 2.87 0.03 99 1011.1
20260506234404 0 91 0.0 6.4 0.03 2.87 0.03 99 1011.0
20260506234303 0 146 0.0 3.2 0.03 2.87 0.03 99 1010.9
20260506234203 0 158 0.0 3.2 0.03 2.87 0.03 99 1010.8
20260506234103 0 158 0.0 3.2 0.03 2.87 0.03 99 1010.8
20260506234004 0 158 0.0 3.2 0.03 2.87 0.03 99 1010.8
20260506233903 0 158 0.0 3.2 0.03 2.87 0.03 99 1010.8
20260506233804 0 158 0.0 3.2 0.03 2.87 0.03 99 1010.9
20260506233704 0 158 0.0 3.2 0.03 2.87 0.03 99 1010.7
20260506233603 0 158 0.0 3.2 0.03 2.87 0.03 99 1010.6
20260506233504 0 0 0.0 0.0 0.03 2.87 0.03 99 1010.6
20260506233303 0 170 0.0 3.2 0.03 2.87 0.03 99 1010.8
20260506233203 0 170 0.0 3.2 0.03 2.87 0.03 99 1010.8
20260506233104 0 170 0.0 3.2 0.03 2.87 0.03 99 1010.6
20260506233005 0 159 0.0 3.2 0.03 2.87 0.03 99 1010.7
20260506232904 0 153 1.6 3.2 0.03 2.87 0.03 99 1010.5
20260506232703 0 148 1.6 3.2 0.03 2.87 0.03 99 1010.7
20260506232603 0 148 1.6 3.2 0.03 2.87 0.03 99 1010.6
20260506232504 0 149 1.6 3.2 0.03 2.87 0.03 99 1010.7
20260506232403 0 148 1.6 3.2 0.03 2.87 0.03 99 1010.6
20260506232306 0 145 1.6 3.2 0.03 2.87 0.03 99 1010.4
20260506232204 0 146 1.6 3.2 0.03 2.87 0.03 99 1010.8
20260506232104 0 148 1.6 3.2 0.03 2.87 0.03 99 1010.5
20260506232005 0 148 1.6 3.2 0.03 2.87 0.03 99 1010.6
20260506231904 0 151 1.6 3.2 0.03 2.87 0.03 99 1010.8
20260506231803 0 153 1.6 3.2 0.03 2.87 0.03 99 1010.3
20260506231703 0 158 1.6 3.2 0.03 2.87 0.03 99 1010.5
20260506231603 0 161 1.6 3.2 0.03 2.87 0.03 99 1010.6
20260506231504 0 164 1.6 3.2 0.03 2.87 0.03 99 1010.5
20260506231403 0 164 1.6 3.2 0.03 2.87 0.03 99 1010.5
20260506231303 0 163 1.6 3.2 0.03 2.87 0.03 99 1010.6
20260506231204 0 163 1.6 3.2 0.03 2.87 0.03 99 1010.6
20260506231005 0 164 1.6 3.2 0.03 2.87 0.03 99 1010.5
20260506230803 0 161 1.6 3.2 0.03 2.87 0.03 99 1010.8
20260506230703 0 161 1.6 3.2 0.03 2.87 0.03 99 1010.4
20260506230603 0 156 1.6 3.2 0.03 2.87 0.03 99 1010.6
20260506230504 0 150 1.6 3.2 0.03 2.87 0.03 99 1010.4
20260506230404 0 147 1.6 3.2 0.03 2.87 0.03 99 1010.6
20260506230304 0 143 0.0 3.2 0.03 2.87 0.03 99 1010.6
20260506230203 0 135 0.0 3.2 0.03 2.87 0.03 99 1010.7
20260506230103 0 135 0.0 3.2 0.03 2.87 0.03 99 1010.8
20260506230004 0 135 0.0 3.2 0.03 2.87 0.03 99 1010.8
20260506225904 0 135 0.0 3.2 0.03 2.87 0.03 99 1010.9
20260506225804 0 135 0.0 3.2 0.03 2.87 0.03 99 1010.9
20260506225703 0 135 0.0 3.2 0.03 2.87 0.03 99 1010.7
20260506225603 0 135 0.0 3.2 0.03 2.87 0.03 99 1010.8
20260506225403 0 0 0.0 0.0 0.00 2.84 0.00 99 1010.5
20260506225203 0 0 0.0 0.0 0.00 2.84 0.00 99 1010.6
20260506225103 0 0 0.0 0.0 0.00 2.84 0.00 99 1010.9
20260506225004 0 0 0.0 0.0 0.00 2.84 0.00 99 1010.7
20260506224903 0 0 0.0 0.0 0.00 2.87 0.00 99 1010.8
20260506224804 0 0 0.0 0.0 0.00 2.87 0.00 99 1010.9
20260506224704 0 0 0.0 0.0 0.00 2.87 0.00 99 1010.9
20260506224604 0 0 0.0 0.0 0.00 2.87 0.00 99 1011.2
20260506224504 0 0 0.0 0.0 0.00 2.87 0.00 99 1010.9
20260506224403 0 0 0.0 0.0 0.00 2.87 0.00 99 1010.9
20260506224303 0 0 0.0 0.0 0.00 2.87 0.00 99 1011.0
20260506224204 0 0 0.0 0.0 0.00 2.87 0.00 99 1011.0
20260506224104 0 0 0.0 0.0 0.00 2.87 0.00 99 1010.9
20260506223804 0 0 0.0 0.0 0.00 2.87 0.00 99 1011.0
20260506223703 0 0 0.0 0.0 0.00 2.87 0.00 99 1010.9
20260506223504 0 0 0.0 0.0 0.00 2.87 0.00 99 1010.9
20260506223404 0 0 0.0 0.0 0.00 2.87 0.00 99 1011.0
20260506223303 0 0 0.0 0.0 0.00 2.87 0.00 99 1011.0
20260506223203 0 0 0.0 0.0 0.00 2.87 0.00 99 1010.7
20260506223103 0 0 0.0 0.0 0.00 2.87 0.00 99 1011.1
20260506223004 0 0 0.0 0.0 0.00 2.87 0.00 99 1010.9
20260506222804 0 0 0.0 0.0 0.00 2.87 0.00 99 1011.0
20260506222704 0 0 0.0 0.0 0.00 2.87 0.00 99 1010.9
20260506222603 0 0 0.0 0.0 0.00 2.87 0.00 99 1010.9
20260506222403 0 0 0.0 0.0 0.00 2.87 0.00 99 1010.9
20260506222305 0 0 0.0 0.0 0.03 2.87 0.00 99 1011.0
20260506222204 0 0 0.0 0.0 0.03 2.87 0.00 99 1011.0
20260506222005 0 0 0.0 0.0 0.03 2.87 0.00 99 1010.9
20260506221904 0 0 0.0 0.0 0.03 2.87 0.00 99 1010.8
20260506221803 0 0 0.0 0.0 0.03 2.87 0.00 99 1011.0
20260506221703 0 0 0.0 0.0 0.03 2.87 0.00 99 1010.9
20260506221603 0 0 0.0 0.0 0.03 2.87 0.00 99 1010.8
20260506221504 0 0 0.0 0.0 0.03 2.87 0.00 99 1011.0
20260506221403 0 0 0.0 0.0 0.03 2.87 0.00 99 1010.9
20260506221303 0 0 0.0 0.0 0.03 2.87 0.00 99 1010.9
20260506221104 0 0 0.0 0.0 0.03 2.87 0.00 99 1010.8
20260506221005 0 0 0.0 0.0 0.05 2.87 0.00 99 1010.9
20260506220904 0 0 0.0 0.0 0.05 2.87 0.00 99 1011.1
20260506220803 0 0 0.0 0.0 0.05 2.87 0.00 99 1010.8
20260506220603 0 0 0.0 0.0 0.05 2.87 0.00 99 1011.0
20260506220504 0 0 0.0 0.0 0.05 2.87 0.00 99 1011.1
20260506220403 0 0 0.0 0.0 0.05 2.87 0.00 99 1010.8
20260506220303 0 0 0.0 0.0 0.05 2.87 0.00 99 1011.0
20260506220203 0 0 0.0 0.0 0.05 2.87 0.00 99 1010.9
20260506220104 0 0 0.0 0.0 0.05 2.87 0.00 99 1010.9
20260506220005 0 0 0.0 0.0 0.05 2.87 0.00 99 1010.8
20260506215904 0 0 0.0 0.0 0.05 2.87 2.87 99 1010.8
20260506215804 0 0 0.0 0.0 0.10 2.87 2.87 99 1011.0
20260506215703 0 0 0.0 0.0 0.10 2.87 2.87 99 1011.0
20260506215603 0 0 0.0 0.0 0.10 2.87 2.87 99 1011.0
20260506215504 0 0 0.0 0.0 0.10 2.87 2.87 99 1010.9
20260506215403 0 0 0.0 0.0 0.10 2.87 2.87 99 1011.1
20260506215306 0 0 0.0 0.0 0.10 2.87 2.87 99 1010.9
20260506215204 0 0 0.0 0.0 0.10 2.87 2.87 99 1011.0
20260506215103 0 0 0.0 0.0 0.10 2.87 2.87 99 1010.9
20260506214903 0 0 0.0 0.0 0.13 2.87 2.87 99 1010.8
20260506214803 0 0 0.0 0.0 0.13 2.87 2.87 99 1010.9
20260506214703 0 0 0.0 0.0 0.13 2.87 2.87 99 1011.2
20260506214604 0 0 0.0 0.0 0.13 2.87 2.87 99 1011.0
20260506214404 0 0 0.0 0.0 0.13 2.87 2.87 99 1010.8
20260506214304 0 0 0.0 0.0 0.13 2.87 2.87 99 1011.1
20260506214203 0 0 0.0 0.0 0.13 2.87 2.87 99 1010.9
20260506214103 0 0 0.0 0.0 0.13 2.87 2.87 99 1010.9
20260506213903 0 0 0.0 0.0 0.13 2.87 2.87 99 1010.9
20260506213803 0 0 0.0 0.0 0.13 2.87 2.87 99 1011.0
20260506213703 0 0 0.0 0.0 0.13 2.87 2.87 99 1010.9
20260506213504 0 0 0.0 0.0 0.13 2.87 2.87 99 1011.3
20260506213404 0 0 0.0 0.0 0.13 2.87 2.87 99 1011.1
20260506213304 0 0 0.0 0.0 0.13 2.87 2.87 99 1011.1
20260506213203 0 0 0.0 0.0 0.13 2.87 2.87 99 1010.9
20260506213005 0 0 0.0 0.0 0.15 2.87 2.87 99 1011.0
20260506212904 0 0 0.0 0.0 0.15 2.87 2.87 99 1011.1
20260506212805 0 0 0.0 0.0 0.15 2.87 2.87 99 1010.9
20260506212705 0 0 0.0 0.0 0.15 2.87 2.87 99 1011.1
20260506212605 0 0 0.0 0.0 0.15 2.87 2.87 99 1011.0
20260506212506 0 158 0.0 3.2 0.15 2.87 2.87 99 1011.1
20260506212405 0 167 0.0 3.2 0.13 2.84 2.84 99 1011.0
20260506212205 0 167 0.0 3.2 0.13 2.84 2.84 99 1011.1
20260506212105 0 167 0.0 3.2 0.15 2.84 2.84 99 1011.2
20260506212006 0 167 0.0 3.2 0.15 2.84 2.84 99 1011.0
20260506211705 0 160 0.0 3.2 0.18 2.84 2.84 99 1011.1
20260506211605 0 151 0.0 3.2 0.18 2.84 2.84 99 1011.2
20260506211505 0 151 1.6 3.2 0.18 2.84 2.84 99 1011.1
20260506211404 0 141 0.0 3.2 0.18 2.84 2.84 99 1011.1
20260506211305 0 141 0.0 3.2 0.18 2.84 2.84 99 1010.8
20260506211205 0 141 0.0 3.2 0.20 2.84 2.84 99 1011.2
20260506211105 0 140 0.0 3.2 0.18 2.82 2.82 99 1011.0
20260506211005 0 148 1.6 6.4 0.18 2.82 2.82 99 1011.2
20260506210905 0 148 1.6 6.4 0.18 2.82 2.82 99 1011.0
20260506210805 0 145 1.6 6.4 0.18 2.82 2.82 99 1011.2
20260506210705 0 149 1.6 6.4 0.18 2.82 2.82 99 1011.1
20260506210604 0 147 3.2 6.4 0.18 2.82 2.82 99 1011.1
20260506210404 0 142 3.2 6.4 0.18 2.82 2.82 99 1011.3
20260506210304 0 141 3.2 6.4 0.18 2.82 2.82 99 1011.3
20260506210205 0 141 4.8 6.4 0.18 2.82 2.82 99 1011.2
20260506210105 0 141 4.8 6.4 0.18 2.82 2.82 99 1011.3
20260506205705 1 142 4.8 6.4 0.15 2.79 2.79 99 1011.4
20260506205604 1 143 4.8 6.4 0.15 2.79 2.79 99 1011.2
20260506205505 1 144 4.8 6.4 0.15 2.79 2.79 99 1011.2
20260506205306 0 141 4.8 6.4 0.15 2.79 2.79 99 1011.2
20260506205205 0 139 4.8 6.4 0.15 2.79 2.79 99 1011.2
20260506205105 0 139 3.2 6.4 0.15 2.79 2.79 99 1011.2
20260506205006 0 137 3.2 6.4 0.13 2.77 2.77 99 1011.2
20260506204905 0 134 3.2 6.4 0.15 2.77 2.77 99 1011.3
20260506204805 0 133 1.6 6.4 0.15 2.77 2.77 99 1011.2
20260506204704 0 122 1.6 6.4 0.15 2.77 2.77 99 1011.2
20260506204604 0 121 1.6 3.2 0.15 2.77 2.77 99 1011.2
20260506204505 0 126 1.6 3.2 0.15 2.77 2.77 99 1011.3
20260506204404 0 137 1.6 3.2 0.15 2.77 2.77 99 1011.2
20260506204304 0 153 1.6 3.2 0.15 2.77 2.77 99 1011.2
20260506204105 0 173 1.6 3.2 0.15 2.77 2.77 99 1011.0
20260506203905 0 168 1.6 3.2 0.15 2.77 2.77 99 1011.0
20260506203705 1 167 3.2 3.2 0.15 2.77 2.77 99 1010.9
20260506203604 1 166 3.2 3.2 0.15 2.77 2.77 99 1011.0
20260506203405 0 169 3.2 3.2 0.15 2.77 2.77 99 1010.7
20260506203305 0 170 3.2 6.4 0.15 2.77 2.77 99 1010.7
20260506203104 0 171 3.2 6.4 0.13 2.72 2.72 99 1010.6
20260506203005 0 177 3.2 6.4 0.13 2.72 2.72 99 1011.0
20260506202904 0 179 3.2 6.4 0.13 2.77 2.72 99 1010.8
20260506202804 0 177 3.2 6.4 0.13 2.77 2.72 99 1010.6
20260506202706 0 179 3.2 6.4 0.13 2.77 2.72 99 1010.9
20260506202605 0 181 3.2 6.4 0.13 2.77 2.72 99 1010.7
20260506202506 0 181 3.2 6.4 0.13 2.77 2.72 99 1010.9
20260506202405 0 182 3.2 6.4 0.13 2.77 2.72 99 1010.8
20260506202306 0 179 3.2 6.4 0.13 2.77 2.72 99 1010.7
20260506202005 0 171 3.2 3.2 0.10 2.72 2.69 99 1010.7
20260506201805 0 166 3.2 6.4 0.05 2.69 2.67 99 1011.0
20260506201705 0 169 3.2 6.4 0.05 2.69 2.67 99 1010.8
20260506201605 0 175 3.2 6.4 0.05 2.69 2.67 99 1010.7
20260506201505 0 174 3.2 6.4 0.05 2.69 2.67 99 1010.7
20260506201404 0 171 3.2 6.4 0.05 2.69 2.67 99 1010.8
20260506201304 0 169 3.2 6.4 0.03 2.67 2.64 99 1010.7
20260506201204 0 171 3.2 6.4 0.03 2.67 2.64 99 1010.7
20260506201005 0 169 3.2 6.4 0.03 2.67 2.64 99 1010.9
20260506200905 0 167 3.2 3.2 0.03 2.67 2.64 99 1010.4
20260506200805 0 169 3.2 6.4 0.03 2.67 2.64 99 1010.8
20260506200705 0 166 3.2 6.4 0.03 2.67 2.64 99 1010.7
20260506200604 0 160 3.2 6.4 0.03 2.67 2.64 99 1010.6
20260506200505 0 161 3.2 6.4 0.03 2.67 2.64 99 1010.8
20260506200404 0 164 3.2 6.4 0.03 2.67 2.64 99 1010.7
20260506200304 0 167 3.2 6.4 0.05 2.67 2.64 99 1010.8
20260506195805 0 173 1.6 3.2 0.05 2.67 2.64 99 1010.8
20260506195705 0 173 1.6 3.2 0.05 2.67 2.64 99 1010.5
20260506195604 1 175 1.6 3.2 0.05 2.67 2.64 99 1010.6
20260506195505 0 172 1.6 3.2 0.05 2.67 2.64 99 1010.5
20260506195306 0 161 3.2 3.2 0.05 2.67 2.64 99 1010.6
20260506195204 0 155 3.2 3.2 0.05 2.67 2.64 99 1010.6
20260506195105 0 155 3.2 3.2 0.05 2.67 2.64 99 1010.3
20260506195005 0 156 3.2 3.2 0.05 2.67 2.64 99 1010.6
20260506194905 0 156 3.2 3.2 0.03 2.64 2.62 99 1010.4
20260506194805 0 155 3.2 3.2 0.05 2.64 2.62 99 1010.6
20260506194704 0 156 3.2 3.2 0.05 2.64 2.62 99 1010.6
20260506194505 0 155 3.2 3.2 0.05 2.64 2.62 99 1010.3
20260506194304 0 161 3.2 3.2 0.05 2.64 2.62 99 1010.5
20260506194204 0 168 3.2 3.2 0.05 2.64 2.62 99 1010.6
20260506194005 0 172 3.2 3.2 0.05 2.64 2.62 99 1010.3
20260506193904 0 174 3.2 3.2 0.05 2.67 2.62 99 1010.4
20260506193705 0 172 3.2 3.2 0.05 2.67 2.62 99 1010.5
20260506193605 0 171 3.2 3.2 0.05 2.67 2.62 99 1010.3
20260506193506 0 178 1.6 3.2 0.05 2.67 2.62 99 1010.2
20260506193405 0 177 1.6 3.2 0.05 2.69 2.62 99 1010.2
20260506193305 0 175 1.6 3.2 0.05 2.69 2.62 99 1010.4
20260506193204 0 171 1.6 3.2 0.05 2.69 2.62 99 1010.3
20260506192904 0 161 1.6 3.2 0.05 2.69 2.62 99 1010.5
20260506192804 0 161 1.6 3.2 0.05 2.69 2.62 99 1010.5
20260506192705 0 162 1.6 3.2 0.05 2.69 2.62 99 1010.4
20260506192605 0 162 1.6 3.2 0.05 2.69 2.62 99 1010.3
20260506192505 0 162 1.6 3.2 0.10 2.69 2.62 99 1010.6
20260506192405 0 161 1.6 3.2 0.10 2.69 2.62 99 1010.4
20260506192306 0 164 1.6 3.2 0.10 2.69 2.62 99 1010.3
20260506192205 0 163 1.6 3.2 0.10 2.69 2.62 99 1010.5
20260506192104 0 162 1.6 3.2 0.13 2.69 2.62 99 1010.5
20260506191904 0 160 1.6 3.2 0.13 2.69 2.62 99 1010.3
20260506191705 0 160 1.6 3.2 0.13 2.69 2.62 99 1010.3
20260506191605 0 159 1.6 3.2 0.15 2.69 2.62 99 1010.4
20260506191506 0 159 1.6 3.2 0.15 2.69 2.62 99 1010.1
20260506191405 1 159 1.6 3.2 0.18 2.69 2.62 99 1010.3
20260506191305 1 158 1.6 3.2 0.20 2.69 2.62 99 1010.2
20260506191204 1 160 1.6 3.2 0.20 2.69 2.62 99 1010.3
20260506191104 0 160 1.6 3.2 0.20 2.69 2.62 99 1010.3
20260506190904 0 161 3.2 3.2 0.23 2.69 2.62 99 1010.4
20260506190805 0 162 3.2 3.2 0.23 2.69 2.62 99 1010.4
20260506190705 0 159 3.2 3.2 0.23 2.69 2.62 99 1010.3
20260506190506 0 155 3.2 3.2 0.28 2.69 2.62 99 1010.4
20260506190405 0 154 3.2 3.2 0.33 2.69 2.62 99 1010.3
20260506190305 0 153 3.2 3.2 0.30 2.67 2.59 99 1010.2
20260506190204 0 152 3.2 3.2 0.30 2.67 2.59 99 1010.2
20260506190104 0 151 3.2 3.2 0.30 2.67 2.59 99 1010.2
20260506185904 0 152 3.2 3.2 0.30 2.67 2.59 99 1010.2
20260506185804 0 149 3.2 3.2 0.30 2.67 2.59 99 1010.3
20260506185705 0 150 1.6 3.2 0.30 2.67 2.59 99 1010.3
20260506185605 0 152 1.6 3.2 0.33 2.67 2.59 99 1010.3
20260506185505 0 155 1.6 3.2 0.33 2.67 2.59 99 1010.2
20260506185306 0 157 1.6 3.2 0.33 2.67 2.59 99 1010.2
20260506185204 0 156 1.6 6.4 0.36 2.67 2.59 99 1010.1
20260506185005 0 153 3.2 6.4 0.36 2.67 2.59 99 1010.4
20260506184904 0 149 3.2 6.4 0.36 2.67 2.59 99 1010.0
20260506184805 0 149 3.2 6.4 0.33 2.64 2.54 99 1010.2
20260506184705 0 151 3.2 6.4 0.33 2.64 2.54 99 1010.2
20260506184605 0 154 3.2 6.4 0.36 2.64 2.54 99 1010.5
20260506184405 0 155 3.2 6.4 0.38 2.64 2.54 99 1010.3
20260506184305 0 154 3.2 6.4 0.43 2.64 2.54 99 1010.3
20260506184204 0 156 3.2 6.4 0.46 2.64 2.54 99 1010.3
20260506184104 0 157 3.2 6.4 0.46 2.64 2.54 99 1010.3
20260506183905 0 160 3.2 6.4 0.48 2.64 2.54 99 1010.2
20260506183805 0 160 3.2 6.4 0.48 2.64 2.54 99 1010.1
20260506183705 0 157 3.2 6.4 0.53 2.64 2.54 99 1010.3
20260506183605 0 153 3.2 6.4 0.53 2.64 2.54 99 1010.2
20260506183505 0 151 3.2 6.4 0.56 2.64 2.54 99 1010.2
20260506183404 0 152 3.2 6.4 0.56 2.64 2.54 99 1010.1
20260506183304 0 154 3.2 6.4 0.61 2.64 2.54 99 1010.2
20260506183104 0 152 3.2 3.2 0.64 2.64 2.54 99 1010.1
20260506183005 0 159 3.2 3.2 0.66 2.64 2.54 99 1010.1
20260506182905 0 164 3.2 3.2 0.66 2.64 2.54 99 1010.3
20260506182805 0 171 3.2 3.2 0.66 2.64 2.54 99 1010.2
20260506182705 0 183 3.2 3.2 0.66 2.64 2.54 99 1010.4
20260506182604 0 185 3.2 6.4 0.66 2.62 2.51 99 1010.5
20260506182505 0 191 3.2 6.4 0.69 2.62 2.51 99 1010.4
20260506182404 0 196 3.2 6.4 0.69 2.62 2.51 99 1010.5
20260506182204 0 207 3.2 6.4 0.79 2.62 2.51 99 1010.4
20260506182105 0 215 3.2 6.4 0.76 2.59 2.49 99 1010.3